[{"header": {"dx": 0.06612293990616946, "dy": 0.0552356325346848, "nx": 98, "ny": 59, "la1": 35.046912555036876, "la2": 31.78801023549047, "lo1": -121.43107172385933, "lo2": -114.95102361305473, "refTime": "2026041622", "parameterCategory": 1, "parameterNumber": 2}, "data": [14.02, 14.02, 14.39, 14.03, 13.68, 13.32, 13.18, 12.82, 12.45, 12.27, 12.16, 11.5, 12.23, 11.92, 11.76, 11.49, 11.58, 11.18, 11.62, 12.39, 12.71, 7.19, 0.0, 0.0, 0.0, -2.28, -6.21, -6.44, -6.21, -6.21, -4.65, -4.81, -3.04, 0.0, 0.0, 4.4, 5.63, 6.64, 7.33, 8.93, 8.99, 10.21, 10.4, 11.44, 14.7, 17.58, 21.54, 24.44, 18.89, 13.75, 14.19, 14.72, 15.2, 15.65, 15.65, 15.62, 15.55, 15.56, 15.45, 15.45, 15.45, 15.45, 15.01, 14.99, 15.01, 15.31, 15.31, 15.56, 15.56, 15.56, 15.51, 15.01, 15.18, 15.18, 15.18, 15.18, 14.5, 14.06, 14.62, 14.71, 14.26, 13.41, 12.96, 12.52, 11.91, 8.22, 10.8, 10.84, 11.18, 11.18, 11.2, 5.28, 3.01, 4.66, 4.66, 6.95, 7.78, 5.8, 13.66, 14.02, 14.02, 14.03, 13.68, 13.33, 13.18, 12.82, 12.65, 12.27, 11.62, 12.27, 11.64, 11.34, 12.04, 11.78, 10.58, 11.98, 11.98, 11.4, 12.89, 9.17, 0.0, 0.0, 0.0, -2.19, -4.32, -6.21, -6.21, -3.96, -4.52, -4.38, -2.06, 0.0, 0.0, 3.32, 3.6, 4.96, 6.01, 7.27, 9.5, 10.91, 10.99, 12.94, 16.96, 21.49, 24.32, 19.73, 13.83, 14.72, 14.75, 15.2, 15.2, 15.2, 15.18, 15.62, 15.55, 15.12, 15.56, 15.56, 15.56, 15.12, 15.01, 15.01, 15.01, 15.45, 15.75, 15.75, 15.75, 15.75, 16.15, 15.85, 15.85, 14.94, 14.94, 14.64, 14.62, 14.06, 14.62, 14.71, 14.26, 13.41, 12.96, 12.52, 11.91, 8.22, 10.8, 10.84, 11.18, 11.18, 11.2, 5.28, 3.01, 4.66, 4.66, 6.95, 7.78, 5.8, 13.66, 13.66, 14.02, 13.68, 14.03, 13.95, 13.23, 13.18, 12.65, 12.27, 11.72, 10.79, 11.66, 11.6, 10.68, 11.11, 11.11, 11.33, 11.64, 12.58, 11.13, 11.87, 6.94, 0.0, 0.0, -1.76, -3.98, -3.39, -3.53, -3.19, -4.05, -2.15, -2.35, 0.0, 1.4, 4.0, 3.35, 4.0, 5.21, 6.45, 8.53, 11.42, 14.3, 16.91, 19.41, 19.92, 16.85, 13.28, 14.71, 15.2, 15.2, 15.2, 15.17, 15.17, 14.73, 15.09, 15.11, 15.56, 15.56, 15.56, 15.56, 15.12, 14.99, 14.99, 15.01, 15.45, 15.45, 15.45, 15.45, 16.0, 15.99, 15.98, 15.62, 15.17, 14.72, 14.72, 15.17, 15.07, 14.27, 14.71, 14.3, 13.41, 12.96, 11.21, 9.67, 8.22, 6.2, 10.0, 11.02, 11.62, 6.4, 3.2, 3.2, 4.66, 5.81, 8.05, 8.44, 5.6, 13.66, 13.66, 14.02, 13.68, 13.68, 13.95, 13.59, 13.23, 13.02, 12.27, 11.72, 11.16, 12.27, 10.87, 10.63, 10.55, 10.85, 11.14, 10.85, 11.45, 10.84, 10.75, 8.94, 2.19, 0.0, -3.14, -1.69, -1.62, -1.39, 0.0, 0.0, 0.0, 0.0, 3.79, 3.04, 3.98, 3.82, 4.8, 5.18, 6.2, 9.92, 13.59, 15.11, 14.85, 13.38, 12.93, 13.55, 14.16, 14.71, 14.75, 14.75, 15.2, 14.72, 14.72, 14.73, 14.73, 15.18, 15.62, 15.62, 15.62, 15.18, 15.11, 14.66, 14.66, 14.66, 15.11, 15.56, 15.58, 17.36, 17.79, 16.88, 15.53, 15.61, 14.72, 14.3, 13.86, 14.75, 15.2, 15.2, 13.86, 13.41, 13.31, 11.12, 4.32, 4.15, 9.67, 12.07, 11.62, 10.38, 6.2, 3.69, 3.2, 4.87, 6.0, 6.87, 9.48, 9.17, 4.93, 13.31, 13.66, 13.66, 13.68, 13.68, 13.68, 13.95, 13.59, 12.73, 12.65, 12.09, 11.16, 11.64, 11.04, 10.63, 10.96, 10.68, 10.96, 10.55, 10.8, 11.6, 10.87, 9.08, 5.2, 0.0, 0.0, 0.0, 0.0, 0.0, 0.0, 0.0, 0.0, 3.68, 5.6, 8.58, 5.31, 5.64, 7.69, 7.2, 6.87, 8.9, 10.75, 10.38, 11.97, 12.93, 13.25, 13.94, 14.16, 14.71, 15.16, 14.75, 14.3, 14.3, 14.75, 14.75, 14.75, 15.2, 15.65, 15.65, 15.2, 14.75, 14.28, 14.28, 14.65, 14.65, 16.51, 16.88, 16.29, 17.84, 19.58, 19.08, 17.28, 17.97, 17.38, 15.65, 12.93, 13.81, 14.3, 13.86, 13.41, 12.96, 10.37, 3.82, 3.53, 5.0, 6.45, 8.53, 7.26, 7.44, 5.34, 3.47, 4.55, 4.39, 6.87, 9.17, 10.73, 9.17, 4.93, 13.31, 13.66, 13.66, 13.33, 13.68, 13.68, 13.61, 13.59, 13.1, 12.73, 12.37, 11.23, 11.64, 10.79, 11.2, 10.96, 10.96, 10.8, 10.63, 10.04, 9.81, 9.89, 10.3, 4.98, 2.06, 0.0, 0.0, 0.0, 0.0, 0.0, 1.39, 2.82, 5.7, 8.15, 9.82, 9.8, 8.38, 7.13, 3.3, 3.47, 5.18, 9.16, 11.09, 12.79, 13.44, 14.55, 14.7, 14.26, 14.3, 14.3, 13.86, 13.86, 13.86, 14.27, 14.72, 14.73, 14.75, 14.75, 15.2, 14.75, 13.86, 13.38, 14.64, 15.08, 15.98, 16.87, 17.14, 15.98, 15.77, 18.68, 20.34, 19.08, 17.62, 18.56, 18.25, 16.54, 13.41, 12.96, 12.96, 12.96, 6.7, -0.0, -0.0, 1.64, 3.68, 4.58, 5.99, 6.65, 7.32, 5.02, 4.55, 4.71, 6.0, 8.44, 9.84, 11.37, 8.3, 3.04, 13.31, 13.31, 13.66, 13.33, 13.33, 13.68, 13.61, 13.61, 13.16, 12.73, 12.37, 10.65, 11.64, 10.66, 11.99, 10.55, 11.09, 11.36, 11.02, 10.48, 10.48, 11.42, 11.69, 8.85, 4.65, 0.0, 0.0, 12.07, 5.6, 0.0, 0.0, 2.7, 5.72, 7.06, 9.58, 11.33, 9.77, 13.41, -11.03, -3.82, 0.0, 9.17, 13.88, 15.2, 15.65, 14.84, 15.83, 14.95, 13.63, 13.53, 14.22, 13.7, 14.27, 14.75, 14.3, 13.86, 14.3, 14.3, 14.3, 13.83, 13.38, 13.38, 15.17, 15.95, 15.98, 15.58, 15.42, 14.17, 13.78, 16.6, 19.51, 19.01, 16.66, 16.35, 16.92, 16.88, 15.2, 13.41, 13.41, -0.0, -4.32, -3.19, -0.0, -0.0, 1.98, 3.44, 6.2, 7.93, 5.63, 5.28, 4.71, 6.0, 7.79, 9.48, 11.37, 10.55, 6.21, 2.93, 12.98, 12.98, 13.33, 13.33, 13.33, 13.33, 13.61, 13.26, 13.16, 12.45, 11.87, 10.65, 11.34, 10.73, 11.88, 10.48, 11.34, 12.15, 11.75, 11.2, 11.5, 11.62, 12.3, 13.05, 13.37, 12.07, 8.53, 5.6, 9.67, 10.6, 5.0, 4.32, 6.71, 9.2, 10.21, 10.7, 10.75, -0.0, -10.41, -8.22, -0.0, 8.53, 10.79, 11.09, 11.52, 12.36, 13.42, 14.13, 12.95, 13.07, 11.87, 12.82, 13.55, 13.72, 13.83, 13.83, 13.83, 13.86, 13.41, 12.96, 12.52, 13.41, 15.15, 14.44, 13.01, 13.59, 14.47, 13.78, 13.77, 15.12, 17.53, 18.17, 16.06, 15.65, 15.2, 14.68, 14.19, 13.41, 12.96, -0.0, -9.8, -8.85, -6.21, -2.45, -0.0, -0.0, 4.98, 4.98, 4.1, 4.1, 3.56, 7.19, 9.48, 10.65, 11.64, 8.85, 4.75, 2.82, 12.98, 12.98, 12.98, 13.33, 13.33, 13.33, 13.28, 12.94, 12.86, 12.8, 11.87, 10.09, 11.06, 9.48, 10.73, 10.37, 10.73, 11.28, 11.26, 11.02, 10.94, 11.44, 11.68, 12.96, 11.96, 12.42, 5.9, 3.98, 9.66, 10.73, 9.67, 12.07, 11.2, 10.04, 10.75, 10.22, 10.52, 2.1, -0.0, 5.0, 7.51, 8.85, 8.85, 10.47, 11.9, 11.53, 13.1, 14.4, 13.58, 13.59, 13.48, 11.97, 12.82, 13.5, 13.55, 13.72, 13.82, 12.96, 12.52, 12.52, 12.47, 15.12, 12.89, 10.39, 10.19, 13.15, 14.85, 14.79, 14.42, 14.62, 16.09, 16.54, 16.41, 15.51, 14.58, 14.3, 13.86, 12.96, 13.44, -0.0, -8.68, -11.99, -12.27, -12.39, -10.41, -3.96, -0.0, -0.0, -0.0, 3.14, 5.8, 7.78, 9.17, 9.48, 9.48, 6.94, 3.19, 2.93, 11.99, 12.98, 12.98, 12.98, 13.33, 13.33, 13.28, 12.94, 12.51, 12.51, 11.92, 11.33, 10.09, 9.46, 10.65, 9.92, 9.92, 9.92, 10.59, 9.42, 9.16, 9.16, 9.66, 10.24, 10.46, 11.18, 2.39, 2.82, 11.99, 12.07, 11.87, -0.0, -0.0, 4.48, 8.22, 9.97, 8.38, 4.0, 5.2, 7.82, 9.16, 10.61, 10.24, 9.86, 9.86, 10.37, 10.59, 11.72, 13.2, 13.2, 12.45, 12.95, 13.02, 12.62, 13.02, 13.8, 13.81, 12.96, 12.47, 12.31, 14.75, 9.17, 7.8, 8.11, 10.19, 13.49, 15.23, 14.94, 13.62, 14.3, 14.64, 15.27, 15.44, 15.27, 14.84, 13.27, 13.31, 11.62, 10.04, 4.52, -0.0, -5.23, -16.37, -15.65, -13.86, -13.01, -13.15, -13.15, -11.99, -0.0, -0.0, 3.04, 5.6, 8.1, 8.1, 5.6, 3.44, 3.44, 11.99, 12.33, 12.98, 12.98, 12.98, 12.98, 12.96, 12.29, 12.56, 12.51, 11.92, 11.03, 11.33, 10.94, 12.3, 10.9, 11.33, 10.92, 11.69, 12.13, 13.02, 12.22, 12.27, 10.61, 12.04, 7.59, -0.0, -0.0, 5.7, 11.2, 7.24, 3.11, 3.11, 6.14, 6.95, 9.97, 8.22, 6.45, 7.65, 9.88, 10.79, 10.41, 9.3, 8.53, 8.22, 7.56, 8.53, 9.42, 10.23, 10.09, 9.8, 11.38, 11.38, 11.38, 12.11, 13.23, 15.11, 13.86, 10.46, 11.99, 2.47, 4.02, 5.23, 7.2, 9.16, 12.03, 14.77, 15.74, 15.05, 12.85, 12.98, 13.35, 14.03, 13.71, 13.34, 11.72, 10.4, 11.18, -0.0, -0.0, 6.8, 8.68, -0.0, -16.99, -15.93, -14.75, -15.2, -15.2, -14.3, -12.72, -5.6, -0.0, -0.0, 5.6, 4.48, 2.13, 2.13, 3.56, 11.99, 11.99, 12.98, 12.98, 12.98, 12.98, 12.96, 12.29, 12.56, 12.56, 12.51, 11.63, 11.36, 11.92, 12.37, 12.7, 11.6, 11.44, 12.4, 13.07, 13.57, 14.44, 14.28, 15.65, 13.41, 11.62, 6.7, 2.69, 3.39, 5.95, 7.9, 7.59, 6.87, 7.27, 7.9, 7.59, 7.59, 8.22, 8.75, 10.04, 10.73, 10.04, 8.22, 7.26, 6.7, 6.58, 7.54, 7.82, 7.19, 6.2, 6.95, 8.51, 9.66, 8.32, 7.14, 8.6, 11.16, 16.79, 6.7, -6.2, -0.0, 3.19, 5.2, 5.98, 6.81, 9.89, 12.99, 15.34, 17.66, 16.99, 13.77, 11.09, 10.97, 10.01, 8.44, 7.26, 5.2, -14.75, -7.0, -0.0, 11.38, 12.87, 10.19, -17.35, -18.59, -18.48, -17.26, -14.99, -14.75, -13.86, -11.87, -8.22, -0.0, -0.0, -0.0, -0.0, 2.54, 2.13, 11.99, 11.99, 11.99, 12.64, 12.64, 12.64, 12.64, 12.32, 12.56, 12.22, 11.96, 11.63, 11.36, 11.96, 13.09, 14.03, 14.22, 13.81, 13.26, 13.51, 14.09, 14.7, 15.2, 14.75, 14.25, 13.61, 13.01, 12.58, 8.53, 6.95, 9.58, 9.3, 8.24, 7.9, 7.27, 7.27, 7.27, 8.41, 9.3, 9.77, 10.16, 8.22, 6.5, 6.3, 7.27, 6.44, 5.98, 4.48, 4.1, 4.24, 5.08, 5.45, 4.11, 2.72, 2.4, 4.45, 9.98, 17.8, 15.27, -1.71, -0.0, 2.87, 5.51, 5.09, 5.47, 7.06, 9.52, 11.2, 14.1, 17.7, 21.2, 0.0, 0.0, 0.0, 0.0, -2.28, -13.99, -14.39, -7.2, 7.4, 13.39, 14.18, 11.38, 8.51, -0.0, -18.78, -18.66, -17.19, -15.93, -14.11, -13.86, -11.62, -10.0, -3.68, -0.0, -0.0, 2.54, 2.2, 11.66, 11.99, 12.3, 12.64, 12.64, 12.96, 12.64, 12.32, 12.32, 12.29, 11.96, 11.63, 11.63, 11.96, 12.8, 14.02, 14.95, 15.42, 15.21, 15.11, 14.81, 15.02, 15.1, 15.19, 14.75, 14.29, 13.8, 13.83, 13.33, 12.27, 10.52, 10.18, 9.58, 7.56, 7.56, 6.95, 6.95, 7.74, 8.99, 9.8, 8.73, 7.27, 7.59, 8.23, 7.87, 6.17, 4.2, 4.15, 4.32, 4.65, 4.65, 4.48, 2.37, 2.37, 4.65, 4.39, 9.77, 17.67, 20.63, 3.98, 0.86, 2.8, 4.75, 4.88, 4.54, 5.56, 5.51, 6.74, 11.37, 14.0, 5.75, -20.75, -12.96, -5.7, -6.98, -13.99, -7.4, 4.23, 7.6, 10.19, 13.26, 13.76, 13.58, 12.65, 8.05, 5.23, -17.88, -17.39, -16.76, -15.69, -13.57, -11.18, -10.84, -8.85, -3.04, -0.0, -0.0, 2.13, 11.66, 11.66, 11.96, 12.64, 12.64, 12.96, 12.96, 12.64, 12.63, 12.29, 11.96, 11.63, 11.96, 12.22, 12.8, 13.73, 14.23, 15.1, 15.83, 15.85, 15.38, 15.54, 15.36, 15.1, 14.7, 13.86, 13.86, 13.84, 13.38, 13.34, 12.42, 10.2, 10.96, 9.55, 8.82, 6.42, 7.59, 7.4, 9.7, 8.54, 8.03, 6.44, 6.95, 7.87, 6.95, 4.4, 3.65, 2.02, 3.98, 5.0, 6.97, 5.0, 4.8, 4.2, 4.4, 7.59, 10.4, 13.37, 16.64, 10.46, 3.81, 4.55, 4.87, 5.02, 5.18, 5.34, 5.81, 8.43, 11.38, 16.74, 19.95, -15.17, -15.8, -10.41, -13.41, -0.0, 7.8, 10.98, 12.01, 13.59, 14.78, 15.19, 14.84, 13.31, 12.96, 10.75, 6.8, -16.09, -16.09, -16.05, -16.66, -13.41, -10.4, -5.6, -3.25, -0.0, -0.0, -0.0, 11.29, 11.66, 11.96, 12.32, 12.32, 12.96, 12.64, 12.96, 12.32, 12.29, 11.96, 11.96, 11.96, 12.56, 13.15, 13.15, 14.02, 14.51, 15.35, 15.83, 15.93, 15.69, 15.54, 14.93, 14.65, 14.74, 13.86, 13.84, 13.39, 13.38, 13.41, 12.07, 10.28, 10.58, 8.82, 6.32, 7.27, 8.23, 9.6, 8.23, 5.86, 4.83, 6.17, 5.06, 3.65, 3.49, 3.65, 3.82, 3.82, 6.17, 6.71, 6.97, 8.22, 7.59, 7.51, 8.8, 9.55, 11.03, 12.0, 10.18, 7.41, 7.44, 8.22, 7.54, 6.21, 6.67, 6.43, 10.75, 13.39, 18.91, 21.04, -5.94, -14.42, -18.78, 1.89, 8.2, 10.94, 13.28, 14.19, 15.46, 16.39, 17.56, 16.9, 14.75, 11.71, 7.9, 9.48, -0.0, -0.0, -0.0, -7.0, -7.78, -4.1, -0.0, -0.0, -0.0, -0.0, -0.0, 11.29, 11.66, 11.96, 11.96, 12.32, 12.96, 12.96, 12.64, 12.64, 12.32, 11.96, 11.96, 12.56, 12.56, 13.15, 13.15, 13.66, 13.66, 14.95, 15.59, 15.42, 15.51, 15.38, 15.25, 14.57, 14.26, 14.75, 14.75, 14.74, 14.3, 13.41, 12.96, 11.15, 11.18, 8.67, 7.64, 6.95, 7.59, 7.27, 5.9, 3.65, 3.52, 3.82, 3.52, 3.11, 4.4, 5.29, 6.42, 6.17, 6.17, 6.17, 6.44, 6.71, 7.59, 8.58, 8.82, 8.82, 9.6, 10.04, 10.55, 10.87, 10.0, 9.2, 8.58, 6.44, 5.29, 6.97, 9.3, 12.87, 17.2, 18.23, -9.43, -17.88, 2.61, 8.48, 11.6, 13.59, 15.86, 16.55, 17.05, 16.8, 16.7, 16.88, 15.2, 10.12, 0.0, 12.07, -2.54, -0.0, 2.72, -0.0, -2.2, -3.44, -0.0, -0.0, -0.0, -0.0, -0.0, 10.97, 11.66, 11.96, 11.96, 11.96, 12.96, 12.96, 12.64, 12.33, 12.01, 12.29, 11.96, 12.56, 12.56, 13.15, 13.09, 13.66, 13.66, 14.13, 14.43, 14.91, 15.44, 15.38, 14.78, 14.65, 14.7, 15.15, 15.18, 15.18, 15.13, 14.57, 13.21, 12.27, 11.06, 10.73, 9.97, 8.18, 7.27, 6.95, 5.9, 3.65, 3.65, 3.65, 3.82, 5.29, 6.42, 7.59, 8.03, 6.17, 4.6, 4.6, 6.17, 6.17, 7.27, 7.27, 7.27, 7.27, 8.38, 9.3, 10.27, 11.09, 11.18, 9.96, 7.59, 4.8, 5.06, 6.64, 9.2, 11.84, 15.65, 20.12, 19.2, 15.36, 14.55, 12.33, 13.26, 15.16, 16.59, 18.02, 17.26, 16.09, 16.6, 16.96, 9.48, 0.0, -12.52, -10.37, -9.17, -4.98, -0.0, 2.35, -0.0, -1.64, -0.0, -0.0, -0.0, -0.0, -0.0, 10.97, 10.97, 11.66, 11.66, 11.96, 12.3, 12.96, 12.64, 12.64, 12.33, 11.7, 11.99, 12.27, 12.6, 12.56, 14.47, 12.51, 13.09, 13.48, 14.15, 14.91, 15.64, 14.53, 15.35, 14.21, 14.81, 12.66, 13.39, 12.96, 13.23, 13.23, 12.3, 11.79, 11.54, 11.02, 10.73, 10.2, 10.62, 10.38, 7.59, 6.14, 6.42, 6.71, 5.75, 7.26, 8.93, 8.93, 8.03, 5.29, 3.82, 3.82, 3.25, 4.6, 4.6, 4.6, 5.7, 6.42, 7.9, 10.04, 10.68, 11.18, 11.03, 8.94, 5.06, 3.11, 4.83, 6.64, 9.2, 10.47, 14.22, 17.25, 18.54, 20.79, 21.35, 16.71, 15.77, 15.75, 16.31, 16.73, 17.05, 16.27, 16.54, 15.47, 12.52, 13.15, 9.48, -3.25, -11.12, -10.47, -4.98, -0.0, -0.0, -1.98, -0.0, -0.0, -0.0, -0.0, -0.0, 10.97, 10.97, 11.29, 11.29, 11.96, 12.3, 12.64, 12.64, 12.64, 12.33, 12.01, 11.99, 12.27, 12.6, 12.6, 12.56, 12.51, 11.92, 13.18, 13.89, 15.09, 14.54, 14.15, 14.85, 13.43, 12.7, 11.92, 12.33, 12.93, 12.18, 11.44, 10.94, 10.55, 10.8, 10.79, 10.47, 10.65, 10.73, 10.62, 9.89, 9.86, 9.32, 9.09, 7.9, 7.9, 9.67, 9.2, 7.27, 2.02, 1.62, 1.62, 3.25, 4.8, 5.0, 4.4, 4.78, 7.15, 7.59, 8.93, 11.28, 11.02, 9.6, 5.95, 2.6, 4.6, 5.7, 7.27, 9.09, 11.03, 12.72, 15.79, 18.56, 22.69, 25.77, 20.92, 16.99, 16.0, 15.85, 16.54, 16.71, 14.99, 15.69, 14.42, 12.56, 12.98, 10.91, 9.48, 3.14, -11.6, -9.77, -4.98, -2.2, -2.54, -0.0, -0.0, -0.0, -0.0, -0.0, 10.97, 10.97, 11.29, 11.29, 11.29, 11.66, 11.96, 12.64, 12.64, 12.64, 12.01, 11.99, 12.27, 12.6, 12.6, 13.15, 12.8, 11.92, 10.99, 13.18, 13.88, 12.65, 12.93, 12.37, 12.27, 12.42, 12.77, 12.14, 11.27, 11.03, 10.79, 9.3, 8.22, 9.67, 10.09, 10.84, 11.06, 10.73, 10.73, 11.18, 11.06, 10.0, 8.59, 7.02, 6.45, 8.53, 7.68, 3.82, -0.0, -0.0, 1.39, 2.82, 2.95, 3.07, 4.23, 4.99, 6.86, 7.9, 10.09, 10.6, 10.84, 7.9, 3.39, 2.71, 4.6, 5.95, 6.87, 8.53, 10.79, 12.62, 14.38, 17.08, 22.35, 25.03, 19.4, 16.64, 15.74, 16.8, 16.46, 15.11, 14.84, 13.99, 13.48, 12.25, 12.39, 10.91, 10.91, 9.48, 6.0, -9.42, -8.85, -2.63, -0.0, -0.0, -0.0, -0.0, -0.0, -0.0, 10.69, 10.97, 11.29, 11.29, 11.29, 11.66, 11.66, 12.32, 12.64, 12.33, 12.01, 11.99, 11.99, 12.6, 12.6, 12.86, 12.8, 12.22, 12.22, 12.51, 12.93, 12.27, 11.72, 11.44, 11.8, 12.54, 12.92, 12.24, 11.63, 11.8, 12.0, 11.46, 10.4, 9.97, 10.4, 10.75, 11.51, 11.62, 11.18, 11.18, 11.06, 10.0, 7.9, 4.24, 3.21, 5.21, 7.59, 1.93, -0.0, -0.0, 1.45, 2.95, 2.95, 3.07, 4.23, 4.4, 5.98, 7.18, 8.22, 9.2, 7.27, 3.39, -0.0, 3.53, 4.4, 5.54, 5.77, 8.53, 10.37, 12.81, 12.52, 16.48, 20.57, 23.81, 1.93, 6.94, 8.43, 13.28, 17.53, 15.27, 13.58, 14.03, 13.65, 12.89, 12.13, 10.18, 10.18, 9.31, 8.85, -0.0, -3.82, -2.63, -0.0, 3.47, 2.35, -0.0, -0.0, -0.0, 10.29, 10.29, 10.29, 11.29, 11.29, 11.66, 11.66, 11.66, 12.33, 12.33, 11.7, 11.7, 11.7, 12.27, 12.6, 12.6, 12.9, 12.56, 12.56, 13.09, 13.58, 13.36, 12.16, 11.62, 11.16, 11.62, 11.88, 12.74, 12.24, 12.1, 11.86, 11.46, 11.35, 11.18, 11.18, 11.51, 11.51, 11.62, 11.62, 11.62, 11.51, 11.03, 9.08, 2.82, 1.16, 2.19, 2.1, -0.0, -0.0, -0.0, 1.45, 1.52, 1.52, 3.07, 2.95, 4.23, 3.82, 5.36, 7.19, 5.21, 4.2, 3.25, 3.68, 3.19, 3.92, 5.0, 6.76, 7.9, 9.3, 10.01, 10.65, 13.58, 23.59, -13.86, -7.63, -6.64, -5.8, 0.0, 16.99, 9.17, 9.8, 12.73, 12.73, 11.88, 11.2, 9.8, 9.8, 9.42, 8.43, 9.33, 4.55, 4.24, 8.58, 8.58, 5.31, 1.77, -0.0, -0.0, 10.29, 10.29, 10.29, 10.61, 11.29, 11.66, 11.66, 11.66, 11.66, 12.01, 11.7, 11.7, 11.7, 11.99, 12.27, 12.6, 12.6, 12.56, 12.56, 12.8, 13.3, 13.85, 13.62, 12.42, 11.5, 11.16, 11.34, 11.99, 12.23, 12.04, 11.94, 11.58, 11.23, 10.84, 10.91, 10.84, 11.06, 11.06, 11.62, 11.62, 11.62, 11.51, 9.97, 3.68, -0.0, -1.23, -0.0, -0.0, -0.0, -0.0, -0.0, 1.58, 1.52, 1.52, 2.82, 2.82, 2.02, 2.16, 3.56, 5.2, 4.0, 4.2, 3.92, 3.68, 3.53, 4.9, 5.86, 8.01, 8.49, 8.94, 9.48, 20.46, 25.7, 27.71, 16.22, 13.41, 13.41, 12.96, 13.19, 9.12, 8.66, 10.12, 10.43, 9.31, 9.6, 10.43, 10.43, 9.71, 9.33, 10.05, 8.51, 8.83, 10.52, 11.53, 10.12, 5.63, 1.53, 1.53, 10.29, 10.29, 10.29, 10.29, 11.0, 11.0, 11.66, 11.66, 11.66, 12.01, 11.7, 11.7, 11.7, 11.99, 11.99, 12.6, 12.27, 12.27, 12.56, 12.56, 13.09, 13.58, 13.85, 13.62, 12.42, 11.22, 11.44, 11.44, 11.61, 11.87, 11.95, 12.16, 11.87, 11.03, 10.6, 10.28, 10.84, 11.09, 11.09, 11.62, 11.62, 11.62, 11.02, 7.9, -0.0, -3.77, -4.08, -2.6, -2.13, -0.98, -0.0, -0.0, -0.0, -0.0, 1.28, 1.45, -0.0, -0.0, 1.64, 4.93, 5.54, 4.98, 3.99, 3.08, 3.06, 4.48, 6.21, 7.41, 8.53, 10.62, 13.19, 15.61, 21.68, 27.12, 27.12, 20.25, 17.74, 15.6, 14.16, 10.73, 5.15, 4.38, 6.0, 6.65, 9.6, 10.43, 9.71, 9.06, 10.1, 11.06, 12.63, 11.52, 12.27, 12.51, 10.18, 7.34, 4.38, 4.38, 10.02, 10.02, 10.02, 10.29, 10.29, 11.0, 11.0, 11.36, 11.66, 12.01, 11.7, 11.7, 11.7, 11.7, 11.99, 12.27, 12.27, 12.27, 12.27, 12.56, 12.8, 13.09, 13.58, 13.75, 13.09, 12.03, 11.22, 11.06, 11.06, 11.33, 11.47, 11.72, 11.54, 11.16, 10.79, 10.6, 10.28, 10.47, 11.09, 11.09, 11.18, 11.62, 11.18, 10.96, 2.6, -2.95, -4.08, -3.61, -2.39, -2.13, -1.11, -1.01, -0.0, -0.0, -0.0, -0.0, -0.0, -0.0, -0.0, 3.19, 6.7, 5.99, 3.81, 2.59, 3.82, 4.99, 7.18, 8.32, 10.62, 11.2, 11.64, 14.23, 16.86, 23.62, 26.45, 25.51, 21.78, 17.88, 11.62, 6.45, -2.2, -0.0, 2.15, 5.46, 7.58, 9.39, 10.01, 9.06, 9.8, 11.3, 12.63, 13.76, 12.82, 13.42, 10.94, 9.42, 7.13, 7.13, 10.02, 10.02, 10.02, 10.29, 10.29, 11.0, 11.0, 11.0, 11.36, 11.7, 11.7, 11.7, 11.39, 11.7, 11.99, 11.99, 12.27, 12.27, 12.27, 12.56, 12.56, 13.09, 13.38, 13.3, 13.2, 12.7, 12.03, 11.22, 11.06, 10.88, 11.33, 10.79, 10.94, 10.8, 10.92, 10.53, 10.55, 10.32, 9.96, 9.75, 10.84, 11.53, 11.53, 10.73, 9.97, -0.0, -5.54, -3.61, -3.45, -2.13, -1.18, -2.19, -1.84, -0.85, -0.0, -0.0, -0.0, -0.0, 0.93, 2.95, 4.75, 5.0, 4.4, 3.67, 3.96, 5.98, 6.92, 10.12, 11.38, 12.3, 12.63, 13.38, 14.72, 16.73, 19.64, 26.37, 24.44, 19.67, 9.83, -8.43, -8.22, -5.8, -0.0, 1.83, 4.87, 7.16, 8.68, 9.61, 10.75, 11.03, 11.76, 13.23, 14.71, 13.55, 11.3, 10.12, 10.12, 10.12, 9.61, 9.61, 10.02, 10.29, 10.29, 10.61, 11.0, 11.0, 11.36, 11.36, 11.7, 11.7, 11.7, 11.7, 12.32, 11.99, 11.99, 12.27, 12.27, 12.56, 12.56, 12.86, 12.73, 13.01, 12.93, 12.82, 12.54, 12.16, 11.5, 11.22, 10.68, 10.55, 10.4, 10.67, 10.67, 10.4, 10.4, 10.15, 10.17, 9.96, 10.6, 11.28, 11.09, 10.22, 9.6, 10.41, -5.7, -4.6, -3.45, -2.49, -1.23, -1.18, -2.1, -2.71, -2.6, -1.16, -0.0, -0.0, 1.02, 2.95, 3.21, 4.15, 3.82, 4.99, 5.57, 6.63, 10.02, 10.25, 10.99, 12.3, 14.14, 14.3, 13.41, 13.86, 15.2, 19.64, 23.66, 19.22, -9.8, -10.18, -9.7, -8.93, -8.38, -2.06, 1.77, 4.87, 7.16, 10.3, 11.06, 10.43, 11.03, 12.22, 13.76, 13.59, 12.8, 12.11, 11.3, 11.3, 9.61, 9.61, 10.02, 10.02, 10.29, 10.61, 11.0, 11.0, 11.36, 11.36, 11.7, 11.7, 11.7, 11.7, 12.32, 11.99, 11.99, 11.99, 11.99, 12.22, 12.22, 12.22, 12.51, 12.45, 12.45, 12.37, 12.27, 12.16, 11.62, 11.5, 11.22, 10.55, 10.55, 10.4, 10.27, 10.13, 10.26, 10.0, 10.15, 9.77, 10.38, 10.6, 10.84, 11.95, 12.07, 10.14, -0.0, -3.87, -2.49, -1.28, -1.39, -1.18, -1.14, -2.02, -3.08, -2.82, -1.71, -0.0, 1.07, 2.19, 3.21, 3.21, 4.12, 5.6, 6.92, 9.17, 10.3, 10.25, 10.58, 11.28, 13.7, 14.71, 13.86, 13.41, 14.28, 18.3, 21.9, 19.07, 18.78, 16.99, -11.95, -9.2, -10.87, -6.21, -0.0, 3.68, 6.65, 9.6, 11.44, 10.75, 11.03, 12.45, 13.02, 12.87, 13.59, 13.74, 12.92, 12.92, 9.61, 9.61, 10.02, 10.02, 10.29, 10.61, 11.0, 11.0, 11.0, 11.36, 11.36, 11.7, 11.7, 11.7, 12.01, 11.99, 11.99, 11.99, 11.99, 11.96, 11.96, 12.22, 11.92, 11.92, 11.87, 11.8, 11.8, 11.72, 11.99, 11.88, 11.75, 10.83, 10.55, 10.02, 10.27, 10.13, 10.26, 9.7, 10.0, 9.6, 9.77, 9.96, 10.6, 10.65, 11.11, 11.62, 10.6, -0.0, -1.28, -0.0, -0.0, -0.0, -0.0, -1.14, -2.1, -3.08, -2.83, -1.11, -0.0, 1.11, 2.1, 3.21, 5.4, 6.45, 8.02, 8.85, 8.97, 10.86, 9.3, 9.13, 10.08, 12.52, 14.94, 16.7, 16.54, 19.19, 19.67, 17.4, 18.3, 20.12, 21.01, -12.27, -10.68, -9.62, -5.98, -0.0, 4.38, 9.16, 11.8, 12.27, 12.65, 14.24, 14.21, 13.51, 13.9, 14.71, 14.95, 14.95, 9.61, 9.61, 9.61, 10.02, 10.02, 10.29, 10.61, 11.0, 10.71, 11.06, 11.36, 11.36, 11.7, 11.7, 12.01, 11.7, 11.67, 11.99, 12.29, 12.29, 11.96, 11.63, 11.92, 11.92, 11.87, 11.52, 11.8, 11.72, 11.62, 11.62, 11.88, 11.75, 11.08, 10.55, 10.27, 9.74, 9.74, 9.86, 9.6, 9.6, 9.6, 9.77, 9.8, 10.47, 10.73, 12.07, 10.35, 4.8, 1.69, -0.0, -0.0, -0.0, -0.0, -0.0, -0.0, -1.07, -2.02, -2.28, -0.97, -0.0, 2.42, 4.72, 6.7, 8.22, 8.53, 8.22, 8.22, 9.17, 9.16, 8.55, 7.81, 9.04, 13.16, 20.83, 20.56, 17.88, 16.5, 14.72, 16.54, 19.63, 21.74, 18.85, 5.8, -8.05, -9.8, -8.58, -0.0, 8.58, 12.42, 13.48, 13.86, 14.31, 14.81, 14.84, 14.44, 14.65, 15.19, 15.19, 9.35, 9.35, 9.61, 9.61, 10.02, 10.02, 10.02, 10.71, 10.71, 10.71, 11.06, 11.36, 11.36, 12.01, 12.01, 11.7, 11.38, 11.38, 12.29, 11.96, 11.63, 11.63, 11.92, 11.58, 11.87, 11.28, 11.58, 10.88, 12.26, 10.7, 11.24, 11.5, 11.36, 11.08, 10.55, 10.27, 9.74, 9.58, 9.47, 9.6, 9.2, 9.6, 10.08, 10.18, 10.47, 11.18, 10.84, 9.6, 7.59, 1.84, -0.0, -0.0, -0.0, 1.18, 1.02, -0.0, -0.0, -0.0, -0.97, -0.0, 1.33, 4.72, 7.65, 7.9, 8.22, 8.41, 7.27, 8.93, 10.19, 9.82, 8.42, 8.38, 12.11, 17.52, 27.57, 19.47, 13.38, 11.18, 13.82, 17.57, 17.16, 16.38, 14.18, 12.13, 4.66, -10.75, -7.0, 6.6, 13.57, 13.59, 13.63, 14.26, 14.7, 14.99, 14.28, 14.53, 14.71, 14.71, 9.35, 9.35, 9.35, 9.61, 10.02, 10.02, 10.02, 10.71, 10.71, 10.71, 11.06, 11.06, 11.36, 11.68, 12.01, 11.7, 11.7, 11.68, 11.68, 11.68, 11.63, 11.92, 11.58, 11.58, 11.28, 11.28, 10.94, 11.23, 10.8, 11.9, 10.15, 10.51, 11.34, 10.96, 10.83, 10.16, 10.27, 9.74, 9.86, 9.47, 9.32, 9.6, 9.9, 10.08, 10.7, 10.66, 10.73, 10.28, 10.18, 6.44, 1.45, -0.0, 1.23, 1.18, 1.02, 1.92, 1.92, 0.89, 0.85, 0.89, 0.89, 4.36, 7.44, 7.06, 7.36, 7.36, 7.59, 7.74, 9.67, 10.55, 10.18, 9.81, 11.11, 15.85, 27.71, 23.15, 15.56, 12.8, 12.87, 13.49, 15.27, 16.02, 15.6, 15.79, 16.05, 16.54, -16.09, 15.2, 14.11, 13.33, 12.96, 13.41, 13.86, 14.23, 13.96, 14.23, 13.59, 13.59, 9.35, 9.35, 9.35, 9.35, 10.02, 10.02, 10.33, 10.71, 10.71, 10.71, 10.71, 11.06, 11.06, 11.68, 11.38, 11.7, 11.07, 11.68, 11.68, 11.36, 11.36, 11.33, 11.33, 11.33, 11.28, 11.28, 10.94, 11.23, 11.23, 11.07, 10.79, 10.15, 10.15, 10.79, 10.68, 10.55, 10.16, 10.27, 10.0, 9.6, 9.47, 9.32, 9.86, 9.9, 10.08, 10.08, 10.22, 10.28, 10.73, 9.2, 4.8, 1.39, 1.18, 2.23, 2.02, 1.84, 1.84, 1.62, 1.56, 1.63, 1.55, 4.4, 5.54, 7.15, 6.17, 7.06, 7.06, 8.07, 8.93, 10.19, 10.12, 10.61, 11.87, 15.08, 23.57, 25.28, 17.81, 16.03, 14.99, 14.31, 15.9, 16.44, 16.51, 16.95, 16.54, 15.78, 0.0, 13.59, 14.3, 13.41, 12.52, 12.52, 12.52, 13.41, 13.31, 13.81, 14.23, 14.23, 9.35, 9.35, 9.35, 9.35, 10.05, 10.33, 10.33, 10.33, 10.71, 10.71, 10.71, 11.03, 11.38, 11.68, 11.38, 11.38, 11.07, 11.38, 11.68, 11.68, 11.36, 11.33, 11.33, 11.33, 11.28, 11.28, 10.94, 11.23, 11.23, 11.72, 11.24, 10.96, 10.41, 10.41, 10.04, 10.3, 10.16, 10.27, 9.88, 9.88, 9.6, 9.2, 9.32, 9.86, 9.83, 9.97, 9.68, 10.23, 10.28, 10.65, 7.59, 2.71, 2.33, 2.23, 3.08, 2.71, 2.59, 2.39, 2.39, 2.15, 1.39, 4.08, 5.32, 7.15, 7.15, 7.15, 7.06, 8.41, 8.41, 9.89, 10.12, 12.11, 13.28, 15.18, 19.4, 21.0, 19.7, 17.56, 16.48, 17.78, 17.43, 16.99, 15.62, 15.17, 15.61, 14.31, 11.8, 13.19, 13.01, 12.22, 12.44, 12.52, 12.52, 12.52, 12.83, 12.83, 14.18, 14.18, 9.09, 9.09, 9.66, 9.66, 10.05, 10.05, 10.33, 10.33, 10.33, 10.71, 11.03, 11.03, 11.03, 11.38, 11.38, 11.38, 11.38, 11.38, 11.68, 11.68, 11.36, 11.33, 11.33, 10.99, 11.28, 10.94, 10.94, 10.88, 10.88, 11.23, 11.35, 11.5, 10.96, 10.68, 10.13, 9.76, 9.76, 10.16, 10.16, 9.88, 9.71, 9.6, 9.42, 9.13, 9.04, 9.18, 9.54, 10.12, 10.23, 10.73, 9.86, 5.32, 3.25, 3.39, 2.95, 3.36, 2.59, 2.39, 3.11, 2.15, 2.02, 2.46, 5.32, 5.7, 6.77, 7.9, 7.27, 8.07, 8.41, 8.41, 10.55, 10.48, 14.24, 16.02, 18.93, 17.31, 17.2, 19.43, 21.35, 19.2, 19.22, 16.06, 12.85, 12.83, 13.25, 12.58, 12.04, 11.87, 11.87, 12.66, 12.86, 12.96, 12.96, 12.83, 12.39, 12.46, 13.15, 13.15, 9.39, 9.39, 9.66, 9.66, 9.66, 10.05, 10.33, 10.33, 10.33, 11.03, 11.03, 11.03, 11.03, 11.03, 11.38, 11.7, 11.38, 11.38, 11.38, 11.68, 11.66, 11.33, 11.33, 10.99, 11.28, 10.69, 10.69, 10.65, 10.88, 10.88, 11.52, 11.62, 11.5, 11.22, 10.3, 9.76, 9.76, 9.76, 10.16, 10.02, 9.88, 9.6, 9.42, 10.43, 8.63, 9.04, 9.6, 9.75, 9.92, 10.68, 10.65, 8.24, 4.6, 4.36, 3.65, 3.65, 3.36, 2.97, 2.89, 2.7, 1.93, 1.84, 5.1, 5.46, 6.59, 7.15, 5.9, 6.77, 7.06, 8.07, 9.17, 10.12, 13.99, 17.05, 20.24, 17.74, 13.83, 16.96, 22.32, 22.32, 18.78, 15.65, 13.29, 11.76, 11.91, 12.75, 13.15, 12.88, 12.88, 12.96, 12.96, 13.41, 13.31, 13.31, 12.46, 12.46, 12.89, 12.72, 9.39, 9.39, 9.39, 9.66, 9.66, 10.05, 10.05, 10.05, 10.65, 10.65, 11.03, 10.73, 10.73, 11.05, 11.36, 11.05, 11.38, 11.38, 11.38, 11.38, 11.66, 11.66, 11.33, 11.28, 10.94, 10.69, 10.69, 10.99, 10.88, 10.88, 11.16, 11.16, 11.62, 11.34, 10.83, 10.3, 10.3, 10.13, 9.76, 10.02, 9.63, 9.35, 9.2, 10.85, 9.13, 9.13, 9.45, 9.2, 9.66, 10.28, 10.28, 8.93, 6.17, 4.99, 4.78, 4.2, 3.88, 3.61, 3.37, 2.7, 1.93, 1.84, 3.77, 5.63, 6.48, 5.95, 5.32, 6.31, 7.06, 7.9, 8.41, 10.55, 12.9, 15.77, 22.41, 21.5, 14.62, 15.2, 19.67, 20.12, 16.99, 15.2, 15.2, 14.75, 13.79, 13.15, 13.15, 13.53, 13.09, 13.33, 13.33, 13.33, 13.33, 13.31, 13.01, 12.58, 12.89, 12.89, 9.39, 9.39, 9.39, 9.39, 9.66, 9.66, 10.05, 10.37, 10.37, 10.37, 10.73, 10.73, 11.36, 11.36, 11.36, 11.36, 11.36, 11.38, 11.38, 11.06, 11.37, 11.33, 11.33, 11.28, 10.69, 10.69, 10.69, 10.99, 10.88, 10.88, 11.16, 11.16, 11.44, 11.07, 11.34, 11.22, 10.83, 10.3, 10.3, 9.76, 9.63, 9.35, 8.96, 9.01, 10.85, 9.13, 9.86, 9.6, 9.36, 9.2, 9.77, 9.33, 7.06, 6.18, 5.21, 5.21, 4.6, 4.0, 3.93, 3.37, 2.7, 1.84, 2.92, 4.88, 5.7, 5.1, 5.46, 6.77, 7.06, 7.9, 8.82, 9.67, 12.39, 13.99, 16.75, 23.45, 22.32, 15.78, 14.26, 13.82, 13.23, 12.94, 12.6, 11.5, 10.94, 11.69, 12.07, 13.43, 13.44, 13.37, 13.63, 13.59, 13.79, 13.77, 13.31, 13.31, 12.86, 12.89, 8.97, 8.97, 9.39, 9.39, 9.39, 9.69, 10.37, 10.37, 10.37, 10.37, 10.69, 11.36, 11.36, 11.36, 11.36, 11.36, 11.36, 11.05, 11.38, 11.37, 11.05, 11.05, 10.72, 11.03, 10.69, 10.69, 10.69, 10.99, 10.65, 10.88, 11.16, 11.16, 11.16, 11.07, 11.34, 11.5, 11.22, 10.83, 10.3, 10.3, 10.02, 9.48, 9.35, 8.96, 9.42, 10.85, 9.68, 9.75, 9.33, 9.49, 9.39, 8.82, 8.05, 7.06, 6.32, 5.49, 4.87, 4.28, 4.0, 3.37, 2.58, 1.97, 2.6, 3.87, 4.88, 5.1, 5.9, 6.87, 7.27, 8.41, 9.17, 9.97, 12.14, 12.39, 13.42, 17.11, 25.29, 23.5, 12.39, 11.6, 12.74, 12.56, 11.8, 11.64, 11.64, 12.39, 13.15, 13.77, 14.37, 13.88, 14.07, 14.25, 13.8, 13.77, 13.33, 12.86, 12.83, 12.83, 8.97, 8.97, 9.39, 9.39, 9.69, 9.69, 9.97, 10.37, 10.37, 10.69, 10.99, 11.36, 11.36, 11.36, 11.36, 11.36, 11.36, 11.38, 11.7, 11.37, 11.05, 11.05, 11.03, 11.03, 11.03, 11.03, 10.99, 10.65, 10.65, 10.65, 11.16, 11.16, 11.16, 11.44, 11.07, 11.5, 11.5, 11.36, 10.83, 10.3, 10.16, 9.63, 9.1, 8.96, 9.6, 10.12, 10.01, 9.75, 9.37, 9.39, 9.36, 8.6, 8.25, 8.0, 6.7, 6.01, 4.61, 4.56, 4.0, 4.0, 3.37, 2.46, 1.91, 3.87, 3.87, 5.46, 6.58, 7.27, 7.27, 8.82, 9.97, 9.77, 11.92, 11.2, 13.48, 14.39, 18.69, 27.56, 23.81, 16.51, 15.76, 15.41, 15.8, 14.16, 12.56, 13.32, 13.55, 14.14, 14.58, 14.26, 14.3, 14.3, 13.86, 13.41, 12.96, 12.83, 12.83, 12.83, 8.72, 8.72, 8.97, 9.69, 9.69, 9.69, 9.97, 9.97, 10.69, 10.69, 10.99, 10.99, 11.36, 11.36, 11.7, 11.7, 11.38, 11.38, 11.38, 11.05, 11.05, 10.72, 11.03, 11.03, 11.03, 11.03, 10.99, 10.65, 10.65, 10.65, 11.16, 11.16, 11.16, 11.16, 11.44, 11.62, 11.88, 11.5, 11.36, 10.83, 10.55, 10.02, 9.63, 9.35, 9.6, 10.24, 10.44, 9.77, 9.82, 9.39, 9.37, 8.86, 8.71, 8.4, 7.6, 6.7, 5.35, 4.61, 4.56, 4.0, 3.21, 2.63, 2.01, 2.6, 3.87, 6.3, 7.27, 7.59, 7.74, 8.82, 9.3, 9.38, 10.4, 11.8, 12.38, 14.19, 16.38, 20.97, 27.03, 23.89, 20.6, 20.5, 17.78, 17.08, 14.4, 13.62, 14.27, 14.27, 14.3, 14.3, 13.86, 13.86, 13.86, 13.41, 12.96, 12.83, 12.83, 12.83, 9.02, 9.02, 9.02, 9.69, 9.69, 9.69, 9.69, 10.02, 10.69, 10.69, 10.69, 10.69, 11.36, 11.38, 11.38, 11.38, 11.38, 11.06, 11.06, 11.05, 10.72, 11.03, 11.03, 11.03, 11.03, 10.99, 10.99, 10.65, 10.65, 10.65, 11.16, 11.16, 11.16, 11.16, 11.16, 11.62, 11.62, 11.62, 11.5, 11.22, 10.83, 10.16, 9.88, 9.35, 9.6, 9.83, 10.24, 10.01, 9.77, 9.82, 9.39, 9.39, 8.92, 8.67, 8.4, 6.7, 6.01, 5.03, 4.32, 4.28, 3.56, 3.21, 2.01, 1.91, 3.77, 6.3, 7.56, 7.06, 8.12, 8.07, 9.67, 8.23, 9.3, 10.99, 12.38, 13.35, 14.94, 16.95, 21.01, 23.34, 25.32, 25.83, 24.23, 18.21, 16.76, 15.09, 14.75, 14.75, 14.75, 13.36, 14.3, 12.52, 12.96, 12.96, 12.96, 12.52, 12.52, 12.52, 9.02, 9.02, 9.02, 9.02, 9.69, 9.42, 10.02, 10.02, 10.39, 10.69, 10.69, 10.69, 11.03, 11.38, 11.38, 11.06, 11.06, 11.06, 10.75, 11.07, 11.36, 11.03, 11.03, 11.03, 10.69, 10.99, 10.65, 10.65, 10.65, 10.88, 11.16, 11.16, 11.16, 11.16, 11.35, 11.35, 11.62, 11.62, 11.24, 10.96, 10.83, 10.55, 9.88, 9.71, 9.6, 9.83, 10.05, 9.81, 10.11, 9.76, 9.82, 9.39, 9.39, 8.84, 8.4, 7.28, 6.35, 5.35, 5.03, 4.32, 3.8, 3.05, 2.63, 1.97, 3.21, 6.58, 6.95, 6.32, 6.95, 7.74, 7.74, 8.47, 9.67, 11.39, 12.38, 12.79, 14.31, 15.07, 16.53, 17.39, 22.79, 28.13, 27.0, 22.12, 19.87, 16.51, 16.54, 16.06, 14.14, 13.53, 13.28, 11.98, 12.42, 12.42, 12.52, 12.07, 12.07, 12.07, 9.02, 9.02, 9.02, 9.02, 9.02, 9.73, 9.73, 10.02, 10.02, 10.39, 10.39, 10.72, 10.72, 10.72, 11.06, 11.06, 11.06, 11.07, 11.07, 11.07, 11.36, 11.03, 10.69, 10.69, 10.36, 10.65, 10.65, 10.65, 10.88, 10.88, 10.88, 11.16, 11.16, 11.52, 11.72, 11.72, 11.72, 11.62, 11.07, 10.96, 10.68, 10.55, 10.27, 10.11, 9.92, 9.83, 10.05, 9.81, 9.97, 10.11, 9.76, 9.39, 9.39, 8.91, 7.98, 7.28, 6.96, 6.01, 5.35, 4.32, 3.6, 3.27, 2.5, 2.01, 3.21, 5.46, 5.21, 5.21, 6.3, 7.4, 7.74, 9.3, 9.97, 11.39, 11.97, 12.72, 13.47, 14.42, 14.74, 14.79, 17.16, 24.07, 27.43, 25.26, 22.75, 18.3, 15.62, 14.5, 13.25, 12.04, 11.87, 11.72, 11.71, 11.98, 11.95, 11.91, 11.91, 11.91, 9.02, 9.02, 9.02, 9.06, 9.33, 9.33, 9.73, 9.73, 9.73, 10.39, 10.39, 10.72, 10.72, 10.72, 10.72, 11.07, 11.07, 11.07, 11.07, 11.07, 10.74, 11.03, 10.69, 10.69, 10.36, 10.65, 10.65, 10.88, 10.88, 10.88, 10.88, 10.88, 11.23, 11.23, 11.72, 11.72, 11.72, 11.62, 11.07, 10.96, 10.68, 10.55, 9.88, 10.11, 10.33, 9.92, 10.12, 9.86, 10.01, 10.11, 9.76, 9.81, 9.39, 8.91, 8.67, 7.73, 7.28, 6.01, 5.69, 5.03, 3.64, 3.09, 2.5, 2.01, 2.63, 5.1, 5.1, 4.88, 6.3, 7.4, 8.55, 8.93, 10.4, 10.99, 11.76, 12.38, 12.93, 13.15, 13.37, 13.81, 14.97, 18.54, 24.05, 25.89, 25.94, 19.67, 15.15, 12.58, 11.6, 10.41, 10.61, 10.48, 11.18, 11.06, 11.02, 10.73, 10.73, 10.73, 8.75, 8.75, 9.06, 9.06, 9.06, 9.06, 9.44, 9.73, 9.73, 9.73, 10.42, 10.42, 10.42, 10.42, 10.75, 11.07, 11.07, 11.07, 11.07, 10.74, 10.74, 10.69, 10.69, 10.69, 10.69, 10.69, 10.99, 11.23, 11.23, 11.23, 11.23, 11.23, 11.23, 11.44, 11.44, 11.72, 11.35, 11.44, 11.07, 10.79, 10.3, 10.16, 9.88, 9.88, 10.11, 10.33, 10.12, 10.29, 9.86, 9.97, 9.67, 9.81, 9.39, 8.94, 8.67, 7.98, 7.28, 6.59, 6.01, 5.35, 4.32, 2.92, 2.54, 2.06, 1.91, 3.32, 5.06, 5.06, 6.04, 6.95, 7.4, 8.55, 10.0, 10.8, 11.39, 11.8, 11.99, 11.58, 12.18, 12.81, 14.33, 14.79, 17.99, 22.62, 26.29, 20.72, 10.18, 10.28, 10.79, 8.85, 8.53, 9.08, 9.96, 10.08, 9.83, 9.39, 9.39, 9.39, 8.64, 8.64, 9.06, 9.06, 9.06, 9.06, 9.44, 9.44, 9.44, 10.06, 10.42, 10.42, 10.42, 10.42, 10.75, 11.06, 11.07, 11.07, 10.74, 10.74, 10.42, 10.69, 10.69, 10.69, 10.69, 10.69, 10.69, 11.23, 11.23, 11.23, 11.58, 11.58, 11.8, 11.44, 11.44, 11.52, 11.16, 11.07, 10.79, 10.41, 10.3, 10.02, 9.88, 9.88, 10.11, 10.33, 9.92, 10.12, 9.86, 10.01, 10.11, 9.75, 9.37, 8.91, 8.82, 8.24, 7.73, 6.9, 6.35, 5.35, 4.61, 3.14, 2.6, 2.12, 1.32, 2.57, 4.2, 4.25, 4.92, 5.9, 6.83, 6.95, 8.18, 10.0, 10.8, 10.99, 10.94, 10.94, 11.97, 13.19, 13.37, 13.7, 14.33, 17.5, 26.27, 13.28, -0.0, -0.0, 9.6, 10.6, 5.2, 5.2, 9.3, 10.41, 10.28, 9.83, 9.83, 9.83, 8.64, 8.38, 8.78, 8.78, 8.78, 8.78, 8.78, 9.44, 9.76, 9.76, 9.76, 10.11, 10.42, 11.06, 11.06, 10.75, 11.07, 10.74, 10.74, 10.42, 10.42, 10.09, 10.69, 10.69, 10.69, 10.69, 10.69, 10.94, 11.28, 11.58, 11.58, 11.8, 11.8, 11.44, 11.23, 11.16, 10.8, 10.51, 10.41, 10.3, 9.92, 10.02, 10.02, 9.88, 10.11, 10.11, 9.92, 10.12, 10.29, 10.01, 10.11, 9.76, 9.81, 8.94, 8.91, 8.24, 7.98, 6.9, 6.59, 5.69, 4.94, 3.4, 2.82, 2.0, 1.36, 1.88, 2.97, 3.49, 4.07, 5.9, 6.7, 7.13, 7.27, 7.4, 9.3, 9.17, 10.25, 10.94, 11.99, 12.93, 13.47, 13.47, 13.57, 16.58, 26.57, 16.45, -0.0, -0.0, 7.59, 10.73, 7.9, 0.0, 5.2, 9.3, 10.41, 9.64, 9.64, 9.64, 8.38, 8.38, 8.51, 8.51, 8.51, 8.78, 8.78, 9.46, 9.46, 9.76, 10.06, 10.42, 10.72, 10.75, 10.75, 10.75, 10.74, 10.74, 10.42, 10.42, 10.42, 10.42, 10.36, 10.69, 10.69, 10.69, 10.69, 11.28, 11.28, 11.28, 11.52, 11.8, 11.8, 11.23, 11.16, 10.8, 10.51, 10.41, 10.04, 10.13, 10.02, 10.02, 10.16, 10.4, 9.88, 10.11, 9.92, 9.92, 10.12, 9.86, 9.97, 9.67, 9.75, 8.94, 8.91, 8.38, 7.98, 7.73, 6.9, 6.35, 4.67, 4.22, 2.82, 2.18, 1.49, 1.49, 2.28, 2.97, 4.78, 5.21, 6.04, 6.83, 7.27, 7.27, 7.74, 8.35, 9.89, 10.56, 11.97, 12.3, 12.52, 13.05, 14.25, 26.9, 27.01, 17.59, -0.0, -9.17, 11.62, 10.28, 11.18, 7.9, 5.2, 9.67, 9.6, 9.2, 9.2, 9.2, 8.11, 8.11, 8.51, 8.51, 8.51, 8.51, 9.09, 9.09, 9.76, 10.06, 10.06, 10.06, 10.75, 10.75, 10.75, 10.43, 10.43, 10.74, 10.42, 10.42, 10.42, 10.42, 10.69, 10.69, 10.69, 11.03, 11.03, 11.28, 11.28, 11.52, 11.52, 11.8, 11.23, 11.16, 10.8, 10.51, 10.15, 10.41, 10.13, 10.13, 9.76, 10.16, 10.16, 10.4, 10.4, 10.21, 10.11, 9.92, 10.12, 9.81, 9.97, 9.67, 9.37, 8.94, 8.94, 8.38, 8.24, 7.98, 7.2, 6.7, 5.0, 4.22, 3.69, 2.4, 2.4, 1.65, 1.84, 2.99, 5.98, 6.17, 6.77, 7.27, 7.68, 7.68, 7.27, 8.02, 9.52, 10.6, 11.39, 11.87, 12.3, 12.93, 17.66, 25.3, 25.69, 18.78, -15.2, -12.96, 12.07, 11.62, 11.18, 11.18, 11.18, 11.18, 10.41, 10.28, 10.28, 10.28, 7.85, 7.85, 8.11, 8.51, 8.81, 9.09, 9.09, 9.38, 9.76, 9.76, 9.76, 10.06, 10.09, 10.43, 10.43, 10.43, 10.43, 10.74, 10.74, 10.42, 10.74, 10.74, 11.03, 11.03, 11.03, 11.03, 11.63, 11.63, 11.28, 11.52, 11.52, 11.23, 11.23, 11.16, 10.87, 10.51, 10.41, 9.86, 10.13, 10.13, 9.76, 10.16, 10.16, 10.16, 10.4, 10.0, 10.11, 9.92, 9.92, 10.05, 9.81, 9.97, 9.31, 9.39, 8.94, 8.47, 8.38, 7.98, 7.56, 7.2, 6.06, 4.56, 4.03, 3.4, 2.83, 2.83, 2.83, 3.17, 5.1, 6.98, 7.59, 8.07, 8.07, 7.27, 7.76, 8.18, 8.93, 10.4, 11.39, 11.39, 11.76, 12.38, 17.58, 22.76, 25.87, -17.88, -13.86, -10.73, -10.73, 11.18, 11.18, 11.62, 11.62, 11.18, 11.18, 9.83, 9.83, 9.83, 8.15, 8.15, 8.42, 8.81, 9.09, 9.09, 9.09, 9.09, 9.38, 9.76, 9.76, 10.09, 10.09, 10.43, 10.43, 10.43, 10.43, 10.74, 10.74, 10.74, 10.74, 10.74, 11.03, 11.36, 11.36, 11.36, 11.63, 11.28, 11.28, 11.28, 11.28, 11.23, 11.16, 10.59, 10.51, 10.15, 10.41, 9.86, 10.13, 10.13, 10.13, 10.3, 10.55, 10.16, 10.4, 10.0, 10.11, 9.71, 9.92, 10.05, 9.81, 9.97, 9.31, 9.36, 8.94, 8.91, 8.38, 8.19, 7.76, 7.2, 6.44, 4.83, 4.83, 4.26, 3.99, 3.99, 3.35, 2.98, 4.5, 6.98, 7.59, 7.06, 7.06, 7.74, 8.12, 8.55, 9.4, 10.38, 10.92, 11.34, 11.76, 13.2, 16.96, 19.81, 27.76, 24.59, -16.09, -11.62, -11.18, 11.18, 11.62, 11.62, 11.62, 11.62, 11.18, 10.28, 10.28, 10.28, 8.15, 8.15, 8.42, 8.81, 8.81, 8.81, 8.81, 8.81, 9.09, 9.09, 9.78, 9.78, 10.09, 10.43, 10.43, 10.43, 10.43, 11.07, 11.07, 11.07, 11.07, 11.07, 11.36, 11.36, 11.36, 11.36, 11.63, 11.28, 11.28, 11.28, 11.23, 11.23, 11.16, 10.59, 10.51, 10.15, 10.23, 9.86, 9.86, 10.13, 10.13, 10.3, 10.55, 10.16, 10.16, 10.4, 9.88, 9.71, 9.92, 10.05, 9.81, 9.64, 9.31, 9.36, 8.94, 8.94, 8.46, 8.38, 8.19, 7.47, 6.82, 5.69, 5.24, 5.24, 4.68, 4.94, 4.21, 4.21, 4.94, 5.98, 5.45, 6.44, 7.27, 7.4, 7.4, 8.18, 8.6, 9.85, 10.28, 10.79, 12.18, 13.15, 15.04, 18.71, 25.73, 27.72, -8.6, -14.75, -10.0, -7.9, 0.0, 8.22, 11.45, 11.28, 10.96, 10.96, 10.96, 10.96, 8.15, 8.15, 8.15, 8.15, 8.53, 8.53, 8.81, 8.81, 8.81, 8.81, 9.78, 10.09, 10.09, 10.43, 10.75, 10.75, 10.75, 11.07, 11.4, 11.4, 11.4, 11.4, 11.68, 11.36, 11.03, 11.63, 11.28, 11.28, 10.94, 11.23, 11.23, 10.88, 10.59, 10.59, 10.51, 10.15, 10.23, 9.86, 9.86, 10.13, 10.13, 10.3, 10.3, 10.55, 10.16, 10.4, 9.88, 9.71, 9.92, 10.05, 9.63, 9.5, 9.64, 9.29, 8.92, 8.94, 8.46, 8.38, 8.38, 8.19, 7.03, 6.11, 5.24, 6.01, 6.01, 5.53, 5.2, 5.2, 4.44, 4.05, 5.1, 6.69, 6.95, 6.64, 7.06, 7.51, 8.21, 8.58, 9.4, 10.79, 11.76, 13.01, 14.6, 17.4, 23.66, 27.72, 19.47, 0.0, -11.2, -5.2, 0.0, 5.2, 10.04, 10.8, 11.28, 11.28, 11.28, 11.28, 7.87, 7.87, 7.87, 7.87, 8.15, 8.53, 8.53, 8.81, 9.13, 9.42, 9.42, 10.09, 10.09, 10.4, 10.75, 10.75, 11.09, 11.4, 11.4, 11.4, 11.4, 11.33, 11.68, 11.36, 11.03, 11.28, 11.28, 10.94, 11.23, 11.23, 10.88, 10.88, 10.59, 10.59, 10.51, 10.15, 10.23, 10.23, 9.86, 9.86, 10.13, 10.13, 10.3, 10.16, 10.02, 9.88, 9.88, 9.71, 9.92, 9.83, 9.63, 9.5, 9.64, 9.29, 8.92, 8.94, 8.49, 8.46, 8.46, 8.36, 7.89, 6.79, 6.45, 6.45, 6.45, 6.01, 5.82, 5.82, 5.2, 4.44, 5.46, 7.9, 7.27, 7.13, 7.51, 8.21, 8.21, 9.13, 9.85, 10.79, 12.08, 13.23, 14.71, 16.51, 22.76, 27.72, 19.67, 16.09, 14.3, 11.99, 0.0, 0.0, 8.85, 10.79, 11.45, 11.45, 11.45, 11.45, 7.87, 7.87, 7.87, 7.87, 7.87, 8.15, 8.53, 9.13, 9.13, 9.42, 9.42, 10.09, 10.09, 10.4, 10.75, 11.09, 11.09, 11.4, 11.4, 11.4, 11.06, 11.33, 11.68, 11.68, 11.03, 11.28, 10.94, 10.94, 11.23, 10.65, 10.65, 10.65, 10.59, 10.59, 10.51, 10.15, 9.94, 10.23, 10.04, 10.04, 10.3, 10.3, 10.13, 9.76, 10.02, 9.88, 9.88, 9.71, 9.71, 9.83, 9.63, 9.5, 9.64, 9.18, 9.29, 8.91, 8.94, 8.49, 8.46, 8.38, 8.19, 7.42, 7.2, 6.79, 6.79, 6.79, 6.32, 6.32, 5.82, 5.72, 6.64, 7.15, 6.58, 8.38, 8.4, 8.99, 9.42, 9.42, 9.85, 10.56, 11.88, 12.81, 14.27, 15.62, 20.98, 27.67, 21.86, 16.05, 14.26, 13.79, 12.52, 11.87, 8.53, 8.85, 8.85, 10.04, 10.04, 10.04, 7.87, 7.87, 7.87, 7.87, 7.87, 8.15, 8.46, 9.13, 9.13, 9.42, 9.42, 9.71, 10.09, 10.09, 10.43, 10.76, 10.76, 11.06, 11.06, 11.06, 11.06, 11.33, 11.33, 11.33, 11.33, 10.94, 11.23, 11.23, 10.65, 10.65, 10.65, 10.3, 10.59, 10.59, 10.51, 10.51, 9.94, 10.23, 10.41, 10.04, 10.3, 10.3, 9.76, 9.76, 9.63, 9.88, 9.48, 9.71, 9.6, 9.42, 9.63, 9.33, 9.5, 9.18, 9.29, 8.92, 8.94, 8.94, 8.94, 8.46, 8.19, 7.89, 7.42, 7.42, 7.2, 6.79, 7.15, 7.15, 6.79, 6.32, 6.11, 6.11, 7.13, 10.4, 8.79, 9.64, 9.64, 9.42, 10.12, 10.56, 11.58, 12.93, 13.82, 14.72, 18.65, 24.88, 23.95, 18.59, 15.46, 14.55, 13.63, 13.33, 12.96, 12.27, 11.2, 10.41, 10.41, 10.41, 7.87, 7.87, 7.87, 7.87, 7.87, 8.15, 8.46, 9.13, 9.13, 9.42, 9.42, 9.71, 10.09, 10.09, 10.43, 10.76, 10.76, 11.06, 11.06, 11.06, 11.06, 11.33, 11.33, 11.33, 11.33, 10.94, 11.23, 11.23, 10.65, 10.65, 10.65, 10.3, 10.59, 10.59, 10.51, 10.51, 9.94, 10.23, 10.41, 10.04, 10.3, 10.3, 9.76, 9.76, 9.63, 9.88, 9.48, 9.71, 9.6, 9.42, 9.63, 9.33, 9.5, 9.18, 9.29, 8.92, 8.94, 8.94, 8.94, 8.46, 8.19, 7.89, 7.42, 7.42, 7.2, 6.79, 7.15, 7.15, 6.79, 6.32, 6.11, 6.11, 7.13, 10.4, 8.79, 9.64, 9.42, 9.42, 10.12, 10.56, 11.58, 12.47, 13.37, 14.27, 15.97, 19.81, 23.33, 20.6, 18.8, 15.68, 14.81, 13.88, 13.67, 13.34, 12.52, 12.07, 12.07, 12.07]}, {"header": {"dx": 0.06612293990616946, "dy": 0.0552356325346848, "nx": 98, "ny": 59, "la1": 35.046912555036876, "la2": 31.78801023549047, "lo1": -121.43107172385933, "lo2": -114.95102361305473, "refTime": "2026041622", "parameterCategory": 1, "parameterNumber": 3}, "data": [-11.81, -11.81, -11.36, -11.08, -10.8, -9.81, -9.23, -8.97, -8.72, -8.18, -7.53, -6.9, -6.52, -5.11, -2.71, -1.77, -0.97, 0.0, 0.0, -1.77, -2.54, -10.79, -11.62, -11.18, -11.18, -11.4, -10.35, -10.73, -10.35, -10.35, -11.62, -12.04, -12.14, -11.18, -10.28, -8.8, -7.51, -6.64, -5.86, -5.1, -3.99, -4.54, -5.2, -5.08, -5.35, -5.17, -5.98, -5.43, -3.54, -1.72, -1.77, -0.92, 0.0, 0.0, 0.0, 0.87, 1.73, 1.64, 2.44, 2.44, 2.44, 2.44, 2.37, 2.5, 2.37, 3.22, 3.22, 4.1, 4.1, 4.1, 4.31, 4.41, 3.79, 3.79, 3.79, 3.79, 2.72, 2.64, 1.95, 1.13, 1.19, 0.0, 0.0, 0.0, -1.98, -8.22, -5.4, -2.71, 0.0, 0.0, 5.6, 12.33, 13.53, 13.99, 13.99, 12.5, 10.37, 11.6, -12.22, -11.81, -11.81, -11.08, -10.8, -10.53, -9.23, -8.97, -8.43, -8.18, -7.55, -8.18, -6.65, -5.29, -4.81, -2.62, -1.76, -1.5, -1.5, -2.28, -3.68, -9.17, -12.96, -12.96, -10.73, -10.96, -10.79, -10.35, -10.35, -11.87, -13.57, -13.15, -12.35, -9.83, -8.05, -8.3, -7.2, -7.44, -7.21, -7.27, -8.15, -7.79, -6.87, -7.97, -9.05, -8.85, -7.6, -3.95, -0.92, -0.98, 0.0, 0.0, 0.0, 0.0, 0.84, 0.87, 1.73, 1.59, 1.64, 1.64, 1.64, 1.59, 2.37, 2.37, 2.37, 2.44, 3.32, 3.32, 3.32, 3.32, 3.59, 2.8, 2.8, 2.8, 2.8, 1.83, 1.95, 2.64, 1.95, 1.13, 1.19, 0.0, 0.0, 0.0, -1.98, -8.22, -5.4, -2.71, 0.0, 0.0, 5.6, 12.33, 13.53, 13.99, 13.99, 12.5, 10.37, 11.6, -12.22, -12.22, -11.81, -11.52, -11.08, -10.46, -9.92, -9.23, -8.43, -8.18, -8.2, -7.19, -7.49, -5.8, -4.58, -3.42, -3.42, -2.61, -3.18, -3.14, -3.34, -3.96, -10.41, -13.41, -13.86, -10.58, -9.96, -10.18, -10.6, -11.18, -14.18, -15.05, -14.11, -11.18, -8.38, -8.0, -7.81, -8.0, -8.34, -9.67, -8.53, -9.34, -10.73, -11.7, -11.09, -7.97, -4.49, -1.9, -1.05, 0.0, 0.0, 0.0, 0.95, 0.95, 0.82, 1.78, 1.68, 1.64, 1.64, 1.64, 1.64, 1.59, 2.5, 2.5, 2.37, 2.44, 2.44, 2.44, 2.44, 1.68, 1.78, 1.88, 0.98, 0.95, 0.98, 0.98, 1.01, 2.01, 0.95, 1.13, 0.0, 0.0, 0.0, 4.48, 6.45, -8.22, -9.3, -5.0, -1.84, 4.65, 12.79, 14.4, 14.4, 13.99, 13.07, 10.73, 9.84, 11.2, -12.22, -12.22, -11.81, -11.52, -11.52, -10.46, -10.19, -9.92, -8.68, -8.18, -8.2, -8.22, -7.36, -6.21, -5.72, -4.87, -4.17, -4.64, -4.17, -3.82, -2.71, -3.07, -6.71, -10.96, -12.07, -12.58, -10.14, -9.7, -9.74, -11.18, -12.07, -13.86, -15.65, -15.18, -12.14, -9.96, -9.55, -9.6, -11.39, -12.39, -13.23, -13.59, -12.59, -9.14, -7.21, -4.97, -2.9, -2.02, -1.05, 0.0, 0.0, 0.0, 0.92, 0.92, 0.87, 0.87, 0.84, 0.82, 0.82, 0.82, 0.84, 1.68, 1.63, 1.63, 1.63, 1.68, 1.64, 1.48, 1.65, 1.78, 1.88, 1.94, 1.04, 0.92, 0.0, 0.0, 0.0, 0.0, 0.0, 0.0, 0.0, 1.66, 6.67, 10.79, 10.38, 6.45, 0.0, 0.0, 4.15, 12.39, 14.75, 14.4, 12.98, 11.99, 10.99, 9.48, 9.17, 11.5, -12.61, -12.22, -12.22, -11.52, -11.52, -11.52, -10.46, -10.19, -9.09, -8.43, -8.46, -8.22, -8.31, -6.79, -5.72, -5.06, -4.58, -5.06, -4.87, -5.4, -5.8, -6.21, -7.26, -10.4, -10.73, -12.07, -12.52, -12.07, -11.18, -10.28, -10.73, -11.18, -11.03, -11.2, -11.44, -13.28, -14.11, -11.53, -14.39, -16.02, -14.47, -10.75, -8.49, -6.98, -4.97, -4.08, -3.22, -2.02, -1.05, -1.08, 0.0, 0.0, 0.0, 0.0, 0.0, 0.0, 0.0, 0.0, 0.0, 0.0, 0.0, 0.84, 0.84, 1.72, 1.72, 0.92, 1.88, 2.87, 4.2, 4.61, 4.77, 4.61, 3.59, 1.34, 0.0, -0.99, -1.15, 0.0, 0.0, 0.0, 0.0, 7.78, 11.45, 10.6, 10.0, 9.67, 8.53, 9.08, 11.16, 14.23, 13.88, 12.14, 11.72, 10.99, 9.17, 8.05, 9.17, 11.5, -12.61, -12.22, -12.22, -11.92, -11.52, -11.52, -10.89, -10.19, -9.35, -9.09, -8.83, -8.86, -8.31, -7.19, -5.6, -5.06, -5.06, -5.4, -5.72, -5.86, -6.24, -6.92, -8.59, -12.45, -12.35, -12.07, -12.07, -12.07, -12.96, -12.07, -9.74, -9.89, -8.55, -6.98, -7.02, -9.8, -10.47, -11.88, -14.84, -13.88, -11.39, -10.99, -8.31, -6.4, -4.89, -2.43, -1.23, -1.19, 0.0, 0.0, 0.0, 0.0, 0.0, -0.95, -0.92, -0.87, 0.0, 0.0, 0.0, 0.0, 0.0, 0.84, 1.83, 1.89, 1.88, 1.98, 3.21, 4.26, 6.31, 7.47, 8.14, 6.36, 5.04, 2.85, 1.66, 0.0, 0.0, 0.0, 0.0, 0.0, 10.04, 11.62, 11.18, 11.51, 11.03, 10.68, 10.48, 11.64, 12.81, 13.39, 12.14, 12.56, 11.99, 9.84, 8.44, 7.11, 9.96, 12.14, -12.61, -12.61, -12.22, -11.92, -11.92, -11.52, -10.89, -10.89, -10.02, -9.09, -8.83, -8.87, -8.31, -7.38, -6.0, -4.87, -4.75, -5.25, -5.93, -5.99, -5.99, -7.03, -7.44, -8.85, -11.62, -11.62, -11.62, 0.0, -11.2, -10.73, -11.18, -9.46, -8.0, -6.18, -5.75, -6.3, -7.82, 0.0, -3.68, -9.55, -12.52, -9.17, -3.47, 0.0, 0.0, 3.3, 2.88, 2.72, 2.48, 3.01, 1.58, 2.11, 1.02, 0.0, 0.0, 0.0, 0.0, 0.0, 0.0, 0.86, 0.89, 0.96, 1.01, 2.13, 4.26, 5.56, 7.12, 7.63, 7.42, 6.64, 6.5, 5.07, 3.33, 2.52, 1.54, 1.88, 0.0, 0.0, 0.0, 13.41, 10.79, 11.18, 12.07, 12.07, 11.91, 12.04, 12.39, 11.9, 13.15, 12.33, 12.56, 11.99, 10.91, 9.48, 7.11, 7.54, 10.87, 11.71, -12.3, -12.3, -11.92, -11.92, -11.92, -11.92, -10.89, -10.61, -10.02, -9.48, -9.49, -8.87, -8.72, -8.05, -7.13, -5.99, -5.29, -5.67, -5.48, -5.6, -4.93, -4.65, -4.1, -4.66, -3.65, 0.0, 8.53, 11.2, 6.45, -3.53, -10.0, -10.79, -8.94, -5.52, -4.54, -3.21, -3.07, 11.18, 6.94, 8.22, 11.18, 8.53, 7.19, 8.31, 9.22, 10.3, 8.05, 7.71, 7.06, 5.81, 3.96, 3.94, 2.9, 1.96, 0.92, 0.92, 0.92, 0.0, 0.0, 0.0, 0.0, 0.0, 1.17, 6.02, 9.47, 10.19, 8.9, 7.42, 5.3, 4.03, 3.51, 2.42, 1.07, 0.0, 0.0, 1.47, 1.77, 0.0, 0.0, 14.3, 9.8, 8.85, 10.35, 12.27, 12.52, 13.41, 12.45, 12.45, 12.3, 12.3, 12.46, 10.79, 9.48, 8.87, 6.65, 8.85, 11.09, 11.28, -12.3, -12.3, -12.3, -11.92, -11.92, -11.92, -11.29, -11.0, -10.41, -9.75, -9.49, -9.5, -11.06, -9.48, -8.05, -7.78, -8.05, -7.25, -6.43, -5.93, -6.08, -5.08, -4.49, -3.46, -1.6, 1.55, 7.87, 9.96, 7.24, 0.0, -6.45, 0.0, 5.6, 6.7, 3.07, 1.14, 2.1, 10.52, 11.62, 10.0, 10.01, 8.85, 8.85, 8.38, 7.93, 7.69, 9.35, 9.0, 8.64, 6.8, 5.99, 4.99, 3.94, 3.12, 2.9, 1.96, 0.99, 0.0, 0.0, 0.0, -1.04, 1.51, 8.06, 11.69, 12.46, 10.76, 9.14, 6.34, 3.09, 1.95, 0.0, 0.0, -2.05, -2.07, -2.24, 0.0, 0.0, 0.0, 3.36, 15.2, 13.02, 6.0, 7.36, 6.2, 6.94, 11.87, 12.96, 12.96, 12.52, 12.58, 11.6, 10.37, 9.17, 9.48, 9.48, 10.41, 11.18, 11.71, -12.66, -12.3, -12.3, -12.3, -11.92, -11.92, -11.29, -11.0, -10.13, -10.13, -10.13, -10.13, -9.5, -8.87, -8.87, -9.02, -9.02, -9.02, -8.23, -8.24, -7.85, -7.85, -7.24, -6.4, -3.92, 0.0, 9.54, 11.28, 6.0, 0.0, 3.96, 14.3, 13.86, 11.21, 8.22, 5.98, 6.7, 8.0, 10.4, 9.77, 7.85, 6.63, 6.4, 6.16, 6.16, 7.78, 8.23, 8.2, 8.4, 8.4, 7.92, 7.06, 5.92, 5.73, 4.74, 3.76, 1.15, 0.0, -1.04, -2.24, 0.0, 13.76, 15.59, 13.9, 12.46, 11.04, 9.37, 5.98, 2.55, 0.0, -1.83, -3.39, -4.54, -5.09, -4.95, -3.98, -1.66, 0.0, 6.7, 13.57, 15.65, 15.69, 2.34, -0.0, -0.0, 3.25, 4.38, 4.38, 6.0, 12.96, 12.96, 12.14, 11.2, 10.12, 10.12, 11.2, 12.04, 12.04, -12.66, -12.33, -12.3, -12.3, -12.3, -12.3, -11.66, -11.06, -10.76, -10.13, -10.13, -10.45, -10.13, -9.21, -9.67, -8.56, -9.44, -9.24, -8.99, -8.4, -8.68, -9.77, -8.18, -6.63, -4.81, 7.59, 10.28, 9.83, 8.55, 5.6, 9.66, 9.33, 9.33, 7.68, 6.95, 5.98, 8.22, 9.67, 8.75, 7.68, 7.19, 6.94, 6.97, 8.53, 8.22, 8.82, 8.53, 8.24, 7.96, 8.83, 11.03, 11.38, 11.38, 11.38, 10.6, 9.92, 6.72, 0.0, -3.92, -6.0, 17.26, 17.42, 15.69, 14.39, 13.23, 13.23, 12.31, 8.48, 2.15, -1.71, -4.87, -6.28, -7.89, -8.43, -7.28, -6.51, -5.2, 0.0, 14.3, 15.2, 13.59, 13.02, 16.09, -0.0, -2.28, -0.0, -0.0, -0.0, -0.0, 4.24, 11.2, 12.52, 12.52, 11.2, 11.21, 12.79, 12.79, 12.46, -12.66, -12.66, -12.3, -12.3, -12.3, -12.3, -11.66, -11.06, -10.76, -10.76, -10.13, -10.47, -10.76, -10.13, -8.83, -7.5, -5.8, -5.08, -5.11, -4.61, -4.52, -3.04, -0.79, 0.0, 0.0, 4.65, 10.04, 8.06, 10.18, 8.93, 7.9, 7.59, 8.24, 7.27, 6.58, 7.59, 7.59, 8.22, 7.65, 6.7, 6.44, 6.7, 8.22, 9.08, 8.38, 7.9, 9.42, 9.77, 10.79, 12.39, 12.5, 14.18, 16.1, 18.31, 17.85, 17.19, 16.74, 8.4, -10.04, 12.39, 17.88, 18.05, 16.64, 14.94, 14.58, 16.48, 18.19, 16.87, 9.63, 0.0, -5.3, -8.31, -9.87, -11.44, -9.84, -9.08, -10.4, -0.0, 13.99, 15.65, 11.38, 9.66, 13.59, 4.34, -2.66, -5.28, -2.47, -2.5, -0.0, -0.0, 3.96, 8.22, 11.62, 11.62, 12.52, 12.96, 12.71, 12.79, -12.66, -12.66, -12.66, -12.64, -12.64, -12.64, -12.01, -11.7, -10.76, -10.47, -10.77, -10.47, -10.76, -10.77, -10.11, -8.77, -6.52, -5.18, -4.03, -3.07, -2.45, -1.23, 0.0, 0.0, 1.24, 2.59, 3.25, 3.14, 8.53, 6.95, 5.75, 6.2, 6.87, 6.58, 7.27, 7.27, 7.27, 7.36, 6.2, 5.43, 5.64, 8.22, 9.09, 7.56, 7.27, 8.58, 9.97, 11.21, 12.3, 12.72, 11.44, 12.25, 13.7, 14.95, 16.82, 17.78, 17.47, 14.24, -5.09, 11.95, 16.09, 16.29, 16.54, 15.27, 17.49, 18.84, 20.22, 22.39, 20.14, 17.7, 7.07, -21.01, -14.3, -11.62, -9.83, -11.4, -4.66, 7.2, 14.39, 14.79, 8.93, 8.51, 11.38, 14.18, 16.99, -0.0, -6.22, -4.91, -2.28, -2.35, -0.0, -0.0, 5.0, 11.03, 12.52, 12.96, 12.71, 13.23, -12.96, -12.66, -12.98, -12.64, -12.64, -12.32, -12.01, -11.7, -11.7, -11.06, -10.77, -10.47, -10.47, -10.77, -10.47, -10.36, -8.97, -7.12, -5.26, -4.07, -3.42, -2.31, -1.74, -0.58, 0.0, 0.6, 1.31, 0.86, 1.48, 2.45, 2.1, 3.39, 5.75, 6.3, 6.3, 6.95, 6.95, 6.77, 4.99, 4.36, 6.24, 7.27, 7.59, 6.17, 5.9, 8.23, 8.4, 10.38, 10.79, 11.62, 11.62, 11.21, 11.84, 11.84, 11.62, 11.72, 12.22, 7.57, 5.89, 13.27, 13.83, 15.39, 15.84, 16.27, 15.9, 15.58, 16.54, 17.52, 18.2, 18.0, 22.99, -8.3, -12.96, -8.55, -8.73, -4.66, 14.79, 16.91, 15.19, 13.59, 10.61, 9.17, 7.76, 8.43, 13.42, 15.69, -0.0, -5.8, -4.79, -5.23, -4.52, -0.0, 2.71, 8.85, 12.14, 12.96, 12.96, 12.79, -12.96, -12.96, -13.29, -12.64, -12.64, -12.96, -12.32, -12.01, -11.36, -11.06, -10.77, -10.47, -10.77, -10.47, -10.47, -10.74, -10.08, -8.71, -7.31, -6.1, -4.73, -4.18, -2.95, -1.74, -1.18, 0.0, 0.0, 0.73, 0.96, 1.33, 1.55, 1.28, 2.19, 3.82, 5.29, 8.03, 7.59, 6.48, 5.54, 4.88, 6.42, 8.58, 6.95, 5.9, 6.95, 8.8, 9.13, 10.08, 9.96, 10.0, 9.3, 10.0, 9.6, 8.4, 8.8, 7.59, 5.2, 3.65, 7.68, 13.95, 12.39, 12.14, 12.98, 13.39, 13.81, 14.23, 15.49, 14.75, 11.38, 11.16, 4.99, -15.17, -13.16, -6.94, -0.0, 16.54, 15.59, 14.11, 12.01, 10.19, 9.24, 7.6, 4.95, 1.66, 0.0, 10.75, 13.59, -0.0, -0.0, -4.01, -3.33, -0.0, 5.2, 11.2, 13.01, 12.96, 12.96, 12.96, -13.28, -12.96, -13.29, -12.96, -12.96, -12.96, -12.64, -12.32, -11.7, -11.06, -10.77, -10.77, -10.77, -10.76, -10.76, -10.76, -10.36, -9.67, -8.27, -7.31, -5.9, -5.23, -4.18, -2.87, -1.76, -0.61, 0.0, 0.69, 0.74, 0.89, 0.0, 0.0, 0.0, 1.76, 5.29, 6.32, 7.27, 6.17, 4.8, 6.17, 7.33, 8.05, 8.23, 8.43, 9.13, 8.72, 9.13, 9.55, 9.55, 8.23, 8.94, 9.3, 8.22, 7.59, 5.63, 4.4, 3.82, 3.68, 8.57, 11.88, 9.53, 8.93, 8.22, 9.42, 10.35, 11.12, 11.26, 10.75, 8.93, 5.4, -4.21, -17.81, -12.02, -0.0, 15.08, 16.39, 15.8, 13.28, 11.61, 9.84, 8.2, 5.27, 1.69, 0.0, -2.93, -7.9, 9.48, 12.96, 12.96, 13.86, 13.99, 10.37, 12.3, 13.41, 12.52, 12.07, 12.52, 12.52, -13.28, -12.96, -13.29, -13.29, -12.96, -12.96, -12.96, -12.64, -12.01, -11.7, -10.77, -10.77, -10.76, -10.76, -10.76, -10.76, -10.1, -10.1, -8.97, -7.8, -7.12, -5.74, -4.73, -3.52, -2.33, -1.19, 0.0, 0.0, 0.7, 0.0, 0.0, 0.0, -0.8, 0.0, 2.17, 5.46, 6.95, 7.59, 7.27, 7.87, 9.13, 8.22, 9.55, 8.22, 9.33, 8.8, 8.82, 8.03, 8.23, 8.23, 8.23, 8.58, 8.94, 7.59, 6.44, 5.29, 5.29, 4.8, 6.7, 7.54, 6.21, 5.0, 5.52, 6.44, 8.58, 8.82, 9.3, 6.97, 5.15, 2.87, -12.15, -15.72, -0.0, 20.85, 15.74, 14.76, 13.59, 11.63, 10.64, 7.87, 6.11, 5.01, 1.88, 0.0, -10.12, -11.62, 0.0, 12.71, 13.41, 13.59, 14.75, 13.23, 12.04, 12.96, 12.96, 12.07, 12.52, 12.52, -13.55, -12.96, -13.29, -13.29, -13.29, -12.96, -12.96, -12.64, -12.33, -12.01, -11.06, -10.77, -10.76, -10.76, -10.76, -10.11, -10.1, -10.1, -9.42, -8.08, -7.16, -5.94, -4.73, -3.55, -1.76, -1.18, -1.26, -0.66, -0.69, -1.44, -2.3, -2.33, -2.45, -1.58, 0.0, 2.49, 5.46, 7.27, 6.95, 7.87, 9.13, 9.13, 9.13, 9.55, 8.82, 8.03, 7.59, 6.42, 8.23, 9.2, 9.2, 8.23, 8.23, 7.27, 7.27, 7.27, 7.27, 6.7, 6.2, 4.4, 4.75, 3.19, 3.98, 7.59, 9.6, 8.43, 6.64, 4.6, 2.37, 0.0, 0.0, 4.27, 12.29, 15.77, 12.33, 10.61, 9.48, 8.78, 7.88, 7.4, 6.71, 6.64, 5.65, -9.48, -12.52, -0.0, 7.78, 9.17, 12.45, 14.3, 14.11, 12.96, 11.51, 12.07, 12.96, 12.96, 12.52, 12.52, -13.55, -13.55, -12.96, -12.96, -13.29, -12.98, -12.96, -12.64, -12.64, -12.33, -11.7, -11.39, -11.1, -11.4, -10.76, -11.25, -10.13, -10.11, -8.79, -7.66, -7.16, -6.62, -5.81, -4.85, -3.95, -3.42, -2.81, -3.57, -3.46, -4.13, -4.13, -4.1, -4.21, -3.55, -1.84, 0.0, 1.28, 1.52, 4.15, 7.59, 7.68, 8.03, 8.94, 9.58, 9.08, 5.95, 5.95, 6.42, 8.82, 9.55, 9.55, 9.75, 9.2, 9.2, 9.2, 8.55, 8.03, 7.9, 6.7, 4.58, 3.19, 3.68, 6.71, 8.43, 9.33, 8.05, 6.64, 4.6, 2.33, 1.58, 4.7, 7.81, 10.4, 12.2, 7.52, 4.98, 3.32, 2.72, 2.95, 3.65, 4.88, 5.51, 4.42, 0.0, -2.63, 9.48, 13.01, 6.67, 8.38, 12.45, 14.3, 13.41, 11.91, 11.62, 13.86, 14.3, 13.86, 13.86, -13.55, -13.55, -13.28, -13.28, -13.29, -12.98, -12.64, -12.64, -12.64, -12.33, -12.01, -11.39, -11.1, -11.4, -11.4, -10.76, -10.13, -10.13, -10.71, -8.99, -8.74, -7.88, -7.66, -8.25, -7.11, -5.55, -5.11, -5.28, -4.97, -4.43, -5.08, -6.08, -5.86, -5.4, -4.32, -2.33, -1.33, 0.0, 1.52, 2.82, 4.23, 5.32, 6.5, 7.9, 7.9, 6.45, 4.6, 7.27, 10.08, 9.7, 9.7, 9.75, 9.6, 10.0, 8.8, 8.6, 8.59, 7.59, 5.95, 2.82, 1.84, 4.8, 8.93, 10.41, 9.2, 8.55, 7.27, 6.5, 4.9, 4.24, 4.93, 6.5, 8.25, 5.6, 1.9, 0.0, -1.68, -2.8, 0.0, 3.04, 4.5, 5.23, 4.81, 4.71, 4.87, 7.79, 9.48, 12.58, 5.8, 7.82, 12.45, 13.23, 12.71, 12.96, 13.86, 15.2, 14.75, 14.75, -13.55, -13.55, -13.28, -13.28, -13.28, -12.96, -13.29, -12.64, -12.64, -12.64, -12.01, -11.39, -11.1, -11.4, -11.4, -10.76, -10.47, -10.13, -9.84, -10.71, -9.8, -8.43, -8.81, -8.83, -8.18, -7.1, -5.38, -4.55, -4.33, -3.68, -4.32, -6.97, -8.22, -6.45, -5.77, -2.71, -1.58, 0.0, 0.0, 0.0, 1.58, 5.0, 7.15, 9.82, 9.67, 8.53, 6.14, 9.55, 10.28, 10.28, 9.74, 9.89, 10.32, 10.75, 9.86, 8.99, 8.82, 7.9, 5.77, 3.53, 2.71, 7.9, 10.18, 10.84, 9.2, 8.93, 8.24, 8.53, 7.19, 5.73, 6.16, 6.64, 6.39, 0.0, -3.23, -5.2, -8.48, -6.11, -1.65, 1.68, 4.95, 7.0, 5.99, 5.45, 6.2, 7.79, 7.79, 9.48, 11.99, 7.54, 8.85, 13.15, 14.3, 13.41, 13.86, 14.75, 14.75, 14.75, -13.2, -13.55, -13.28, -13.28, -13.28, -12.96, -12.96, -12.96, -12.64, -12.33, -12.01, -11.39, -11.39, -11.4, -11.4, -11.1, -10.47, -10.47, -10.47, -10.13, -8.81, -8.18, -8.2, -8.58, -8.85, -7.76, -6.15, -4.28, -3.23, -2.53, -1.33, -1.91, -5.2, -5.98, -5.2, -3.07, -1.64, 0.0, 0.0, 0.0, 1.58, 5.0, 7.9, 11.3, 10.7, 9.38, 7.59, 9.64, 10.28, 10.28, 10.18, 10.32, 10.32, 10.75, 9.86, 10.27, 9.97, 10.25, 8.22, 5.52, 7.27, 10.18, 11.18, 10.6, 10.27, 9.7, 10.09, 8.53, 7.78, 7.32, 9.39, 11.54, 11.75, 3.97, -9.64, -10.41, -14.75, -13.28, -3.51, 5.09, 7.76, 8.77, 8.53, 8.06, 7.58, 8.73, 8.73, 10.86, 11.8, 12.07, 11.45, 13.15, 14.3, 13.88, 14.11, 14.3, 14.75, 14.75, -13.51, -13.51, -13.51, -13.28, -13.28, -12.96, -12.96, -12.96, -12.33, -12.33, -12.32, -11.7, -11.7, -11.1, -11.4, -11.4, -11.06, -10.76, -10.76, -10.11, -9.45, -8.14, -7.53, -7.55, -8.22, -7.55, -7.13, -5.46, -4.28, -3.19, -2.22, -1.91, -2.52, -3.19, -3.19, -1.64, -1.64, 0.0, 0.0, 0.0, 1.64, 3.68, 7.26, 11.28, 11.57, 10.96, 10.52, 9.39, 9.39, 10.28, 10.18, 10.62, 10.62, 10.75, 10.32, 9.86, 10.5, 11.8, 10.79, 7.81, 8.4, 9.75, 11.03, 11.18, 10.46, 10.0, 9.46, 7.9, 6.97, 7.51, 8.87, 11.64, 11.8, -0.0, -2.54, -6.64, -11.6, -15.2, 0.0, 13.76, 9.8, 9.09, 9.09, 10.18, 9.6, 9.8, 9.8, 10.77, 12.65, 12.0, 12.14, 12.72, 11.44, 11.44, 13.28, 14.19, 14.3, 14.3, -13.51, -13.51, -13.51, -13.26, -13.28, -12.96, -12.96, -12.96, -12.96, -12.64, -12.32, -11.7, -11.7, -11.39, -11.1, -11.4, -11.4, -10.76, -10.76, -10.47, -9.83, -9.04, -7.7, -7.1, -6.9, -7.44, -7.16, -6.94, -5.5, -4.81, -3.77, -3.41, -2.99, -2.71, -2.42, -2.71, -1.58, -1.58, 0.0, 0.0, 0.0, 1.64, 5.98, 11.03, 11.62, 11.11, 12.52, 11.18, 10.73, 11.18, 11.62, 11.06, 10.62, 10.62, 9.89, 9.89, 10.08, 11.88, 12.46, 10.4, 8.0, 8.4, 10.46, 11.03, 10.6, 11.03, 10.55, 9.62, 7.27, 6.71, 5.92, 2.05, 3.43, 5.04, 3.24, 0.0, 0.0, 0.0, 6.6, 12.16, 10.82, 10.12, 10.43, 10.86, 11.2, 10.43, 10.43, 11.1, 12.0, 12.57, 10.94, 10.09, 9.02, 7.69, 10.12, 13.15, 13.77, 13.77, -13.51, -13.51, -13.51, -13.51, -12.94, -12.94, -12.96, -12.96, -12.96, -12.64, -12.32, -11.7, -11.7, -11.39, -11.39, -11.4, -11.1, -11.1, -10.76, -10.76, -10.11, -9.45, -9.04, -7.7, -7.1, -6.5, -6.99, -6.99, -6.72, -6.25, -5.03, -4.48, -3.96, -3.68, -3.53, -3.08, -2.71, -1.39, -1.39, 0.0, 0.0, 0.0, 1.84, 7.9, 11.18, 10.05, 10.88, 10.41, 9.6, 9.79, 10.73, 12.52, 10.73, 10.73, 10.2, 10.18, 10.28, 9.83, 11.51, 11.5, 9.7, 7.96, 8.99, 10.28, 11.21, 11.21, 10.35, 9.53, 8.53, 4.72, 2.4, 1.11, 3.1, 5.71, 5.71, 3.57, 2.22, 1.2, 2.02, 8.05, 12.87, 13.15, 11.99, 11.64, 11.2, 10.43, 11.1, 11.64, 11.36, 11.06, 11.36, 9.22, 7.36, 7.82, 8.73, 11.75, 13.15, 13.15, -13.16, -13.16, -13.16, -13.51, -13.51, -12.94, -12.94, -12.63, -12.96, -12.64, -12.32, -12.32, -11.7, -11.7, -11.39, -11.1, -11.1, -11.1, -11.1, -10.76, -10.47, -10.11, -9.45, -8.37, -7.73, -6.88, -6.5, -6.76, -6.76, -6.3, -6.04, -5.55, -4.86, -4.6, -4.32, -3.53, -3.08, -2.33, -1.39, -1.39, 0.0, 0.0, 0.0, 2.19, 10.41, 10.32, 10.88, 9.63, 9.54, 9.6, 11.12, 11.13, 12.52, 12.07, 11.18, 10.73, 10.28, 9.83, 10.28, 11.18, 10.04, 10.48, 8.58, 9.49, 10.5, 10.99, 10.25, 9.36, 7.43, 5.6, 3.18, 1.42, 2.11, 4.97, 6.61, 6.71, 2.29, 0.0, 0.0, 9.67, 13.23, 13.86, 15.05, 12.74, 12.13, 12.52, 11.44, 11.64, 11.03, 10.17, 11.36, 9.17, 8.16, 8.05, 8.51, 10.77, 11.88, 11.88, -13.16, -13.16, -13.16, -13.51, -13.51, -12.94, -12.94, -12.94, -12.63, -12.32, -12.32, -12.32, -11.99, -11.7, -11.39, -11.39, -11.1, -11.1, -11.1, -10.76, -10.76, -10.11, -9.73, -9.07, -8.4, -7.5, -6.88, -6.5, -6.76, -7.04, -6.3, -6.35, -6.08, -5.4, -5.14, -4.92, -4.87, -4.3, -3.98, -3.25, -2.71, -1.44, -1.44, 0.0, 2.49, 11.18, 9.7, 9.63, 9.21, 9.6, 10.66, 10.96, 10.12, 10.25, 11.18, 10.73, 10.73, 10.28, 9.34, 9.85, 11.09, 10.0, 10.27, 10.08, 11.87, 9.97, 9.89, 8.1, 6.21, 4.1, 2.92, 0.96, 0.98, 2.95, 4.36, 6.94, 2.72, 0.0, 0.0, 5.06, 8.22, 11.6, 14.3, 12.83, 12.98, 12.9, 13.02, 12.35, 10.75, 9.8, 9.62, 9.92, 9.36, 9.49, 10.17, 10.12, 10.12, 10.12, -13.46, -13.46, -13.16, -13.51, -13.51, -13.26, -12.94, -12.94, -12.63, -12.63, -12.32, -12.32, -12.32, -12.32, -11.7, -11.39, -11.39, -11.1, -11.1, -10.76, -10.76, -10.41, -9.84, -9.47, -8.81, -8.16, -7.76, -7.53, -6.9, -6.5, -6.53, -5.86, -6.12, -5.65, -5.65, -5.2, -5.2, -4.68, -4.62, -3.98, -3.53, -2.82, -1.39, -1.14, -2.13, -2.6, 8.55, 9.2, 9.21, 9.97, 11.11, 10.66, 10.52, 9.92, 10.41, 11.57, 11.18, 10.73, 10.23, 9.85, 10.7, 10.38, 10.5, 10.99, 10.2, 10.61, 8.91, 7.18, 4.99, 4.1, 2.18, 0.0, 0.0, 0.0, 0.0, 1.09, 1.31, 0.0, -9.8, 1.45, 5.54, 7.44, 10.47, 12.35, 12.39, 12.98, 12.9, 11.77, 11.06, 10.43, 9.8, 9.77, 9.17, 10.19, 10.47, 9.91, 10.17, 10.17, -13.46, -13.46, -13.16, -13.16, -13.51, -13.26, -12.94, -12.94, -12.63, -12.63, -12.32, -12.32, -12.32, -12.32, -11.7, -11.39, -11.39, -11.39, -11.39, -10.47, -10.47, -10.47, -10.13, -9.48, -9.48, -8.83, -8.18, -7.53, -7.55, -6.9, -6.5, -5.86, -5.86, -6.12, -5.44, -5.7, -5.47, -5.0, -4.68, -4.44, -4.15, -3.53, -2.71, -1.71, 0.0, -1.69, 9.39, 9.04, 9.97, 10.2, 11.09, 10.66, 10.22, 10.08, 10.28, 10.35, 11.95, 11.62, 10.68, 10.96, 10.7, 10.7, 11.34, 11.2, 9.89, 9.17, 9.27, 7.18, 4.81, 2.82, 2.11, 1.05, 0.0, 0.0, -0.89, -1.02, 0.0, 2.38, 0.0, 0.0, 1.71, 4.6, 6.21, 10.35, 12.96, 12.89, 11.64, 11.2, 10.01, 10.75, 9.8, 8.72, 8.68, 9.66, 10.19, 9.99, 10.33, 10.33, -13.46, -13.46, -13.16, -13.16, -13.51, -13.26, -12.94, -12.94, -12.94, -12.63, -12.63, -12.32, -12.32, -12.32, -12.01, -11.39, -11.39, -11.39, -11.39, -10.77, -10.77, -10.47, -10.13, -10.13, -9.49, -8.85, -8.85, -8.2, -7.8, -7.13, -6.46, -6.27, -5.86, -5.89, -5.44, -5.7, -5.47, -5.54, -5.0, -4.8, -4.44, -3.98, -3.53, -1.33, 1.23, 0.0, 3.53, 10.28, 10.2, 11.18, 11.18, 10.28, 10.28, 10.22, 10.52, 10.28, 9.42, 11.12, 11.62, 11.12, 10.52, 10.7, 10.8, 9.67, 9.02, 8.85, 9.97, 9.31, 6.2, 3.65, 3.67, 4.81, 5.98, 3.13, 0.0, -1.13, 0.0, 1.02, 1.08, 0.0, 0.0, 2.45, 4.58, 8.01, 9.97, 14.3, 13.15, 10.99, 8.85, 8.18, 7.59, 6.47, 6.56, 7.88, 8.11, 9.36, 8.97, 8.97, -13.46, -13.46, -13.46, -13.16, -13.16, -13.51, -13.26, -12.94, -12.6, -12.29, -12.63, -12.63, -12.32, -12.32, -12.01, -11.7, -11.08, -11.39, -11.06, -11.06, -10.77, -10.47, -10.13, -10.13, -9.49, -9.22, -8.85, -8.2, -7.55, -7.55, -7.13, -6.46, -5.83, -5.86, -5.44, -5.48, -5.48, -5.26, -4.8, -4.8, -4.8, -4.44, -4.36, -2.33, 0.0, 0.0, 6.21, 9.6, 10.14, 11.18, 10.73, 10.28, 10.28, 10.73, 10.73, 10.68, 10.08, 11.4, 10.68, 11.18, 10.91, 10.62, 10.04, 8.22, 8.53, 8.22, 8.22, 9.17, 7.85, 5.7, 5.21, 6.57, 8.46, 9.26, 4.33, 0.0, -1.1, -0.98, 0.0, 1.23, 2.72, 3.77, 11.6, 10.73, 9.8, 11.44, 14.3, 11.44, 7.1, 5.99, 5.04, 3.58, 3.42, 4.95, 6.02, 6.66, 7.6, 7.6, -13.1, -13.1, -13.46, -13.46, -13.16, -13.16, -13.16, -12.6, -12.6, -12.6, -12.29, -12.63, -12.63, -12.01, -12.01, -11.7, -11.38, -11.38, -11.06, -10.77, -10.47, -10.47, -10.13, -9.84, -9.49, -9.5, -9.14, -8.59, -8.99, -7.32, -7.31, -6.9, -6.25, -5.83, -5.86, -5.44, -5.48, -5.75, -5.05, -4.8, -4.6, -4.8, -3.67, -3.39, -2.33, 0.0, 2.71, 4.8, 7.59, 11.02, 10.73, 10.28, 10.73, 10.66, 10.23, 10.28, 11.18, 11.18, 10.68, 10.28, 12.0, 10.62, 8.75, 7.9, 8.22, 7.36, 7.27, 7.44, 7.28, 7.02, 5.9, 6.7, 6.73, 6.74, 9.19, 2.78, 0.89, 0.0, 1.06, 3.3, 6.44, 7.17, 6.62, 7.58, 13.99, 10.75, 13.99, 13.19, 4.52, 2.72, 2.48, 1.19, 1.23, 2.5, 5.19, 5.81, 6.54, 6.54, -13.1, -13.1, -13.1, -13.46, -13.16, -13.16, -13.16, -12.6, -12.6, -12.6, -12.29, -12.29, -12.63, -12.33, -12.01, -11.7, -11.7, -11.07, -11.07, -11.07, -10.47, -10.13, -9.84, -9.84, -9.5, -9.5, -9.21, -8.86, -7.96, -8.72, -7.33, -7.59, -7.16, -6.92, -6.27, -5.64, -5.44, -5.48, -5.26, -5.05, -4.35, -4.8, -4.13, -3.67, -3.21, -1.18, 0.0, 0.0, 3.39, 8.58, 10.18, 10.28, 11.11, 10.66, 10.23, 10.56, 10.56, 10.69, 10.25, 10.69, 10.69, 9.8, 8.93, 8.07, 8.41, 8.41, 7.59, 6.77, 6.45, 7.54, 6.48, 5.35, 3.42, 2.8, 5.04, 5.03, 4.1, 4.0, 3.78, 4.76, 5.09, 5.65, 5.5, 4.93, 4.01, 0.0, -0.0, 0.0, 2.35, 1.48, 0.0, 0.0, 0.0, 1.42, 3.1, 5.34, 6.8, 6.8, -13.1, -13.1, -13.1, -13.1, -13.16, -13.16, -12.92, -12.6, -12.6, -12.6, -12.6, -12.29, -12.29, -12.33, -12.01, -11.7, -11.68, -11.07, -11.07, -10.76, -10.76, -10.13, -10.13, -10.13, -9.5, -9.5, -9.21, -8.86, -8.86, -7.57, -7.19, -7.33, -7.33, -7.19, -6.53, -5.86, -5.64, -5.44, -5.0, -4.8, -5.05, -4.35, -4.23, -4.13, -3.67, -2.02, -1.14, 0.0, 0.0, 5.52, 9.6, 11.09, 10.66, 10.04, 10.08, 10.12, 10.12, 9.7, 10.16, 10.6, 12.42, 10.27, 9.7, 8.59, 8.23, 8.07, 8.07, 7.06, 7.44, 7.28, 7.36, 6.63, 3.96, 1.89, 2.36, 5.75, 5.94, 5.61, 4.5, 3.58, 2.51, 1.83, 1.03, 1.06, 0.0, -3.16, -16.09, -6.8, 0.0, 0.0, 0.0, 0.0, 0.0, 0.0, 1.66, 5.18, 5.34, 5.34, -13.1, -13.1, -13.1, -13.1, -12.57, -12.92, -12.92, -12.92, -12.6, -12.6, -12.6, -12.33, -12.01, -12.33, -12.01, -12.01, -11.68, -11.38, -11.07, -11.07, -10.76, -10.13, -10.13, -10.13, -9.5, -9.5, -9.21, -8.86, -8.86, -8.2, -7.31, -6.92, -6.94, -6.94, -6.7, -6.29, -5.64, -5.44, -5.23, -5.23, -4.8, -4.6, -4.35, -4.23, -3.02, -2.49, -1.76, -1.02, 0.0, 1.33, 7.59, 10.84, 10.47, 10.04, 10.28, 9.92, 9.49, 9.54, 9.54, 10.05, 9.74, 10.88, 9.32, 8.59, 8.59, 8.59, 8.07, 7.36, 7.36, 6.92, 7.36, 6.73, 5.31, 3.79, 3.23, 4.42, 5.91, 5.27, 4.12, 1.87, 0.0, 0.0, -0.98, -1.01, -1.11, -3.58, -8.85, -6.6, -3.25, -2.72, -1.38, 0.0, 0.0, 0.0, 1.83, 1.83, 4.05, 4.05, -12.73, -12.73, -12.87, -12.87, -12.57, -12.57, -12.92, -12.92, -12.92, -12.6, -12.33, -12.33, -12.33, -12.01, -12.01, -12.01, -11.38, -11.38, -11.07, -11.07, -10.76, -10.13, -10.13, -9.84, -9.5, -9.21, -9.21, -8.59, -8.59, -8.86, -7.95, -6.9, -6.92, -6.53, -6.56, -6.31, -6.31, -5.64, -5.64, -5.23, -4.57, -4.8, -4.12, -3.65, -3.87, -3.53, -2.39, -1.84, -1.02, 0.0, 4.23, 9.32, 9.75, 10.18, 9.85, 9.24, 9.49, 9.54, 9.33, 10.05, 10.08, 8.6, 9.32, 8.55, 7.74, 7.9, 7.27, 7.06, 7.36, 7.36, 7.54, 7.62, 6.47, 5.65, 3.34, 2.04, 2.87, 3.07, 2.14, 0.96, 0.0, -1.0, -1.71, -1.83, -2.04, -3.14, -4.81, -3.96, -3.96, -2.81, -1.61, 0.0, 0.0, 1.83, 1.77, 3.56, 4.38, 4.38, -12.52, -12.52, -12.87, -12.87, -12.87, -12.57, -12.92, -12.92, -12.92, -12.33, -12.33, -12.33, -12.33, -12.33, -12.01, -11.7, -11.38, -11.38, -11.38, -11.07, -10.43, -10.13, -10.13, -9.84, -9.5, -9.5, -9.5, -8.87, -8.59, -8.59, -8.49, -7.55, -6.9, -6.5, -6.29, -6.31, -6.31, -6.31, -5.64, -5.89, -5.23, -4.8, -4.12, -4.01, -3.7, -3.87, -3.69, -3.25, -2.71, -1.07, 1.33, 6.87, 9.2, 9.8, 9.13, 9.13, 9.24, 8.91, 9.4, 9.46, 9.64, 9.21, 8.93, 8.18, 8.47, 8.59, 7.87, 7.74, 8.07, 7.06, 7.14, 8.1, 7.0, 7.87, 5.62, 2.22, 0.86, 1.0, 1.17, 1.17, 0.0, 0.0, -1.77, -2.71, -1.98, -2.32, -2.63, -1.43, -1.43, 0.0, 0.0, 0.0, 1.66, 1.66, 3.56, 3.56, 3.68, 4.24, -12.52, -12.52, -12.52, -12.87, -12.87, -12.57, -12.57, -12.57, -12.65, -12.65, -12.33, -11.99, -11.99, -11.7, -12.02, -11.7, -11.38, -11.38, -11.38, -11.38, -10.43, -10.43, -10.13, -9.5, -9.21, -9.5, -9.5, -9.16, -8.59, -8.59, -8.22, -8.22, -7.55, -7.16, -6.27, -6.29, -6.29, -6.56, -6.31, -5.89, -5.67, -5.26, -4.6, -4.17, -3.65, -3.65, -4.05, -4.6, -3.51, -3.08, 0.0, 5.1, 8.23, 8.99, 8.6, 8.4, 8.55, 8.67, 8.76, 9.46, 9.64, 9.21, 10.05, 7.51, 7.4, 8.93, 9.32, 8.12, 8.07, 7.9, 7.36, 7.54, 7.16, 7.42, 8.97, 7.59, 1.95, 0.0, 0.0, 0.0, 0.0, 0.0, 0.0, 0.0, 1.38, 2.63, 4.38, 3.01, 2.91, 1.48, 1.48, 1.48, 1.48, 1.66, 3.25, 3.14, 3.68, 3.68, -12.52, -12.52, -12.52, -12.52, -12.87, -12.87, -12.57, -12.31, -12.31, -12.31, -11.99, -11.99, -12.02, -12.02, -12.02, -12.02, -12.02, -11.38, -11.38, -11.06, -10.74, -10.13, -10.13, -9.5, -9.5, -9.5, -9.5, -9.16, -8.59, -8.59, -8.22, -8.22, -7.83, -7.57, -7.16, -6.5, -6.27, -6.29, -6.29, -6.31, -5.67, -5.26, -5.04, -3.94, -4.17, -3.65, -4.23, -4.8, -4.25, -4.6, -1.09, 3.11, 6.18, 7.06, 7.81, 7.81, 7.67, 8.0, 8.52, 8.76, 9.46, 9.21, 7.01, 8.54, 8.55, 8.93, 8.18, 7.74, 8.07, 7.9, 6.86, 6.45, 6.2, 7.0, 10.31, 13.03, 9.19, 3.16, 1.1, 1.06, 2.2, 3.53, 4.58, 6.9, 6.96, 7.44, 7.68, 6.1, 4.89, 3.65, 2.48, 2.72, 1.38, 1.53, 1.66, 1.66, 1.61, 3.68, -12.82, -12.82, -12.52, -12.52, -12.52, -12.28, -12.31, -12.31, -12.31, -12.31, -12.03, -12.02, -12.02, -12.02, -12.02, -12.02, -12.02, -11.7, -11.38, -10.74, -10.44, -10.44, -10.13, -9.8, -9.5, -9.5, -9.5, -9.16, -8.87, -8.59, -8.22, -8.22, -8.22, -7.57, -7.16, -6.9, -6.5, -6.27, -6.29, -6.29, -5.89, -5.92, -5.26, -5.04, -4.12, -4.17, -3.46, -3.25, -3.11, -2.59, 0.0, 3.21, 4.83, 5.49, 6.32, 7.06, 6.96, 7.85, 8.0, 8.76, 9.03, 9.18, 10.41, 9.04, 8.54, 8.93, 7.87, 8.24, 7.27, 7.36, 7.14, 5.98, 4.55, 6.2, 8.05, 11.41, 16.86, 13.83, 6.2, 5.8, 7.43, 7.73, 7.26, 6.65, 6.65, 6.2, 5.63, 5.3, 3.32, 3.47, 2.56, 1.3, 1.25, 1.53, 1.48, 1.61, 1.83, 1.83, -12.82, -12.82, -12.52, -12.52, -12.28, -12.28, -12.63, -12.31, -12.31, -12.03, -12.36, -12.02, -12.02, -12.02, -12.02, -12.02, -12.02, -11.38, -11.05, -10.74, -10.44, -10.44, -9.8, -9.8, -9.8, -9.8, -9.16, -8.87, -8.87, -8.87, -8.22, -8.22, -8.22, -7.83, -7.57, -6.9, -6.9, -6.25, -6.27, -6.29, -5.64, -5.67, -5.69, -5.04, -4.8, -3.57, -2.35, -1.3, -0.62, 0.0, 0.67, 2.46, 3.44, 4.0, 5.21, 6.01, 6.59, 7.17, 8.0, 8.0, 8.76, 8.6, 8.28, 9.04, 9.04, 8.18, 7.9, 7.27, 7.27, 6.86, 5.98, 5.43, 5.11, 5.6, 5.99, 7.2, 11.42, 15.75, 15.04, 10.69, 10.2, 9.07, 8.37, 6.66, 4.71, 3.81, 2.9, 2.18, 2.24, 1.19, 0.0, 0.0, 0.0, 0.0, 0.0, 1.83, 1.83, 1.83, -12.45, -12.45, -12.82, -12.28, -12.28, -12.28, -12.63, -12.63, -12.03, -12.03, -12.36, -12.36, -12.02, -12.02, -11.7, -11.7, -11.38, -11.38, -11.38, -10.44, -10.44, -10.13, -9.8, -9.8, -9.8, -9.8, -9.16, -8.87, -8.87, -8.87, -8.22, -8.22, -8.22, -8.22, -7.83, -7.55, -7.13, -6.9, -6.25, -6.27, -5.86, -5.89, -5.67, -5.26, -4.8, -4.48, -2.46, -1.15, -0.58, 0.0, 0.59, 1.18, 2.01, 3.06, 3.8, 5.21, 6.01, 6.59, 7.17, 8.0, 8.34, 8.55, 8.71, 10.41, 9.04, 7.56, 7.27, 7.59, 6.77, 6.86, 6.2, 5.21, 5.2, 5.36, 5.16, 5.46, 7.17, 11.03, 14.86, 13.14, 12.59, 11.87, 8.42, 6.64, 3.2, 2.55, 0.95, 1.02, 0.0, 0.0, 0.0, 0.0, 0.0, 0.0, 0.0, 1.83, 1.83, 1.83, -12.24, -12.24, -12.24, -12.28, -12.28, -12.28, -12.28, -12.02, -12.03, -12.03, -12.03, -12.03, -12.02, -11.38, -11.38, -11.38, -11.38, -11.06, -11.06, -10.44, -10.13, -9.8, -9.8, -9.8, -9.8, -9.16, -9.16, -8.87, -8.87, -8.87, -8.22, -8.22, -8.22, -8.22, -8.22, -7.55, -7.55, -7.55, -6.9, -6.5, -6.27, -5.64, -5.23, -5.26, -4.8, -4.3, -3.2, -2.35, -1.15, -0.58, 0.0, 0.0, 0.64, 2.17, 3.06, 5.21, 6.01, 6.28, 6.79, 7.34, 7.71, 8.34, 8.71, 8.28, 10.05, 7.56, 6.3, 6.18, 6.31, 7.06, 6.45, 6.17, 6.2, 5.99, 5.16, 5.14, 5.98, 6.98, 8.85, 12.28, 13.32, 12.3, 9.23, 4.55, 2.79, 1.78, 0.0, 0.0, 0.0, -1.11, 0.0, 0.0, 0.0, 0.0, 0.0, 0.0, 0.0, 0.0, -12.24, -12.24, -12.24, -12.24, -12.28, -11.93, -12.02, -12.02, -11.69, -12.03, -12.03, -12.03, -11.72, -11.38, -11.38, -11.06, -11.06, -11.06, -10.75, -10.42, -10.1, -9.8, -9.8, -9.8, -9.5, -9.16, -8.87, -8.87, -8.87, -8.59, -8.22, -8.22, -8.22, -8.22, -7.95, -7.95, -7.55, -7.55, -7.31, -6.92, -6.27, -5.86, -5.23, -4.57, -4.8, -4.3, -3.77, -3.07, -1.89, -1.22, -0.61, 0.0, 0.0, 1.36, 3.06, 4.37, 5.64, 6.01, 6.28, 6.79, 7.6, 7.93, 8.55, 9.18, 8.34, 7.9, 6.95, 6.32, 6.95, 6.77, 6.77, 6.59, 6.45, 5.18, 5.16, 5.33, 5.11, 5.65, 6.81, 8.18, 11.4, 12.66, 9.45, 5.53, 3.14, 0.92, 0.0, -1.0, -2.18, -3.01, -1.9, -1.5, -1.55, -1.55, 0.0, 0.0, 0.0, 0.0, -12.24, -12.24, -12.24, -12.24, -12.24, -11.68, -11.68, -12.02, -12.02, -11.69, -11.69, -11.39, -11.39, -11.39, -11.06, -11.06, -11.06, -10.42, -10.42, -10.42, -10.1, -9.8, -9.5, -9.5, -9.21, -8.87, -8.87, -8.87, -8.59, -8.59, -8.59, -8.22, -8.22, -8.49, -8.2, -8.2, -8.2, -7.55, -7.57, -6.92, -6.53, -5.86, -5.44, -4.76, -4.08, -4.3, -3.77, -3.07, -2.49, -1.89, -1.22, 0.0, 0.0, 0.69, 2.9, 4.37, 4.87, 5.35, 6.01, 6.79, 7.2, 7.84, 8.12, 8.71, 8.34, 8.18, 7.81, 7.81, 7.56, 6.48, 6.77, 6.2, 5.98, 5.18, 4.99, 4.24, 4.81, 4.81, 6.45, 7.4, 7.63, 9.63, 9.6, 7.58, 4.79, 1.02, -0.92, -2.72, -4.08, -4.81, -3.96, -4.39, -2.93, -1.5, -1.71, -1.98, -1.98, -1.98, -12.24, -12.24, -12.24, -11.64, -12.0, -12.0, -11.68, -11.68, -11.68, -11.69, -11.69, -11.39, -11.39, -11.39, -11.39, -10.42, -10.42, -10.42, -10.42, -10.42, -10.11, -9.8, -9.5, -9.5, -9.21, -8.87, -8.87, -8.59, -8.59, -8.59, -8.59, -8.59, -8.86, -8.86, -8.2, -8.2, -8.2, -7.55, -7.57, -6.92, -6.53, -5.86, -5.23, -4.76, -4.26, -4.08, -3.57, -2.9, -2.35, -1.89, -1.22, -0.65, 0.0, 0.69, 2.17, 3.51, 4.37, 5.35, 5.69, 6.28, 6.67, 7.43, 8.12, 8.71, 8.55, 8.93, 8.93, 8.54, 7.56, 6.48, 5.7, 5.95, 5.2, 4.99, 4.28, 5.16, 4.97, 5.63, 6.24, 7.36, 7.04, 7.81, 10.82, 11.09, 6.83, 0.0, -1.17, -3.14, -5.8, -6.94, -6.63, -5.99, -3.19, -1.58, -1.84, 0.0, 0.0, 0.0, -11.88, -11.88, -11.64, -11.64, -11.64, -11.64, -11.33, -11.68, -11.68, -11.68, -11.07, -11.07, -11.07, -11.07, -10.75, -10.42, -10.42, -10.42, -10.42, -10.11, -10.11, -9.5, -9.5, -9.5, -9.5, -9.5, -9.16, -8.86, -8.86, -8.86, -8.86, -8.86, -8.86, -8.58, -8.58, -8.2, -7.95, -7.83, -7.57, -7.19, -6.29, -5.64, -5.23, -5.23, -4.76, -4.26, -3.57, -3.03, -2.9, -2.49, -1.81, -0.65, 0.0, 0.0, 2.17, 2.9, 4.37, 4.61, 5.35, 6.01, 6.79, 7.01, 7.63, 8.24, 8.28, 8.3, 8.43, 8.43, 7.76, 6.95, 6.48, 5.7, 5.0, 5.4, 5.18, 5.36, 6.0, 6.76, 7.5, 7.32, 6.27, 7.4, 9.0, 10.72, 8.76, 3.45, 3.39, 0.0, -4.32, -8.85, -8.53, -7.26, -3.98, -2.02, 0.0, 0.0, 0.0, 0.0, -11.96, -11.96, -11.64, -11.64, -11.64, -11.64, -11.33, -11.33, -11.33, -11.4, -11.07, -11.07, -11.07, -11.07, -10.75, -11.06, -10.42, -10.42, -10.11, -10.11, -9.8, -9.5, -9.5, -9.5, -9.5, -9.5, -9.5, -8.86, -8.86, -8.86, -9.14, -9.14, -8.85, -8.58, -8.58, -8.49, -8.22, -7.57, -7.19, -6.94, -6.29, -5.89, -5.23, -5.23, -4.76, -4.26, -4.08, -3.57, -2.9, -2.35, -1.89, -1.3, -0.62, 0.69, 1.47, 2.06, 3.51, 4.14, 4.94, 6.01, 6.59, 6.92, 7.14, 7.76, 7.94, 8.56, 8.4, 9.36, 9.03, 8.42, 7.68, 6.95, 5.46, 5.0, 5.4, 5.99, 6.96, 6.96, 6.98, 6.6, 6.24, 5.48, 6.27, 6.8, 7.3, 13.28, 14.3, 10.73, 4.8, -3.53, -10.4, -10.4, -6.2, -2.6, 0.0, 0.0, 0.0, 0.0, -11.96, -11.6, -11.29, -11.29, -11.29, -11.29, -11.29, -11.33, -11.06, -11.06, -11.06, -10.74, -11.07, -11.06, -11.06, -10.75, -10.42, -10.11, -10.11, -9.8, -9.8, -9.5, -9.5, -9.5, -9.5, -9.5, -9.5, -9.21, -9.5, -9.14, -9.14, -8.85, -8.85, -8.58, -8.86, -8.22, -7.96, -7.59, -6.94, -6.29, -6.06, -5.89, -5.89, -5.23, -4.76, -4.76, -4.08, -3.57, -3.03, -2.35, -1.89, -1.22, -0.65, 0.0, 0.69, 2.06, 2.9, 4.14, 4.61, 5.69, 6.35, 6.8, 7.06, 7.33, 7.48, 6.9, 8.91, 8.72, 8.95, 8.42, 8.38, 8.02, 7.27, 6.48, 6.2, 7.14, 7.18, 6.96, 6.0, 4.97, 4.81, 4.81, 4.52, 3.69, 6.13, 12.34, 16.09, 12.07, 7.59, 0.0, -7.9, -11.18, -10.4, -6.2, -2.6, -1.93, -1.93, -1.93, -11.6, -11.6, -10.94, -10.94, -10.94, -11.29, -11.29, -10.73, -10.73, -11.06, -11.4, -11.07, -11.39, -10.75, -10.75, -10.75, -10.11, -10.11, -9.8, -9.8, -9.8, -9.8, -9.21, -9.5, -9.5, -9.5, -9.5, -9.5, -9.5, -9.5, -9.22, -8.85, -8.85, -8.86, -8.22, -7.96, -7.59, -6.94, -6.7, -6.56, -5.89, -5.89, -5.64, -5.2, -5.23, -4.76, -4.08, -4.08, -3.57, -2.9, -2.49, -1.81, -1.3, 0.0, 0.69, 1.4, 2.9, 3.51, 4.14, 4.94, 6.0, 6.32, 7.06, 7.28, 7.45, 7.45, 9.11, 8.91, 8.6, 7.81, 7.76, 7.68, 7.27, 7.27, 6.77, 7.42, 6.92, 6.72, 4.99, 4.1, 4.81, 4.66, 3.8, 4.48, 6.23, 8.8, 16.54, 9.17, 0.0, 0.0, 0.0, -7.9, -10.4, -6.45, -4.8, -4.6, -4.6, -4.6, -11.23, -11.23, -10.94, -10.94, -10.94, -10.94, -11.04, -11.04, -11.06, -11.4, -11.4, -11.4, -10.75, -10.75, -10.75, -10.43, -10.43, -10.11, -9.8, -9.8, -9.8, -9.8, -9.5, -9.5, -9.5, -9.8, -9.8, -9.5, -9.5, -9.22, -9.22, -8.85, -8.86, -8.22, -7.96, -7.59, -7.33, -6.94, -6.56, -6.56, -6.31, -5.64, -5.64, -5.2, -5.2, -4.54, -4.76, -4.08, -3.57, -3.07, -2.49, -1.81, -0.62, 0.0, 0.0, 1.4, 2.06, 2.9, 3.6, 4.46, 5.72, 6.32, 6.64, 7.21, 7.21, 7.42, 7.37, 6.99, 8.37, 8.23, 7.74, 7.27, 6.83, 6.83, 7.27, 7.13, 6.67, 5.78, 5.18, 3.96, 4.1, 4.97, 4.91, 7.44, 7.71, 0.0, -0.0, -0.0, 0.0, 0.0, 0.0, 0.0, 0.0, 0.0, -2.6, 0.0, 0.0, 0.0, -10.87, -10.87, -11.23, -10.94, -10.7, -11.04, -11.04, -11.39, -11.06, -11.06, -11.06, -11.4, -10.76, -10.43, -10.43, -10.43, -10.43, -10.11, -10.11, -9.8, -10.11, -10.11, -9.8, -9.8, -9.8, -9.8, -9.79, -9.79, -9.5, -9.22, -9.22, -8.86, -8.86, -8.22, -7.85, -7.59, -6.94, -6.96, -6.56, -6.56, -6.31, -5.64, -5.64, -5.64, -5.2, -5.0, -4.76, -4.08, -4.08, -3.77, -3.07, -2.49, -1.24, 0.0, 0.0, 0.65, 1.4, 2.9, 2.75, 3.6, 5.3, 6.08, 6.44, 6.8, 7.53, 7.53, 7.53, 7.4, 8.93, 8.15, 7.59, 7.06, 7.06, 7.27, 6.04, 5.46, 5.95, 5.2, 5.18, 5.18, 4.28, 5.16, 6.59, 8.03, 8.62, -0.0, -0.0, -0.0, -0.0, 0.0, 0.0, 0.0, 0.0, 0.0, 0.0, 0.0, 0.0, 0.0, -10.65, -10.65, -11.01, -10.7, -11.04, -11.04, -11.04, -11.04, -11.39, -11.06, -11.06, -10.76, -10.76, -10.43, -10.43, -10.43, -10.43, -10.11, -10.11, -10.11, -10.11, -10.11, -9.8, -10.1, -10.1, -10.1, -9.79, -9.5, -9.5, -9.5, -9.5, -8.86, -8.22, -8.23, -7.59, -7.33, -6.94, -6.96, -6.56, -6.56, -6.56, -6.29, -5.86, -5.64, -5.2, -5.0, -4.76, -4.57, -4.08, -3.77, -3.07, -2.49, -1.24, -0.67, 0.0, 0.69, 1.4, 2.23, 2.12, 3.6, 4.83, 6.44, 6.44, 6.82, 6.99, 6.99, 7.81, 7.95, 7.2, 8.15, 7.59, 8.07, 8.07, 6.77, 6.31, 5.7, 4.18, 4.15, 3.97, 4.12, 4.28, 5.5, 5.65, 6.99, 6.94, 0.0, -0.0, -0.0, -0.0, 0.0, 0.0, 0.0, 0.0, 0.0, 0.0, 0.0, 0.0, 0.0, -10.65, -10.65, -11.01, -10.7, -10.7, -10.7, -10.7, -10.7, -11.04, -11.04, -10.44, -10.44, -10.76, -10.43, -10.43, -10.43, -10.43, -10.42, -10.42, -10.42, -10.42, -10.42, -10.1, -10.1, -10.1, -10.1, -9.79, -9.5, -9.5, -9.5, -8.86, -8.86, -8.22, -8.23, -7.59, -7.33, -7.22, -6.96, -6.96, -6.56, -6.56, -6.29, -5.86, -5.64, -5.64, -5.2, -5.23, -4.57, -4.08, -3.77, -3.07, -1.93, -1.24, -0.67, 0.0, 0.0, 0.71, 1.4, 2.23, 2.99, 4.26, 5.69, 6.11, 6.11, 6.55, 6.91, 7.37, 7.37, 6.91, 8.37, 8.72, 8.58, 7.27, 6.48, 6.48, 5.46, 4.78, 2.95, 3.08, 4.32, 4.43, 4.38, 4.3, 4.4, 3.22, 0.0, -17.19, -3.69, -5.0, -7.9, -11.62, -8.22, -3.82, -2.82, -2.19, -2.19, -2.19, -2.19, -10.65, -10.65, -10.65, -10.65, -10.35, -10.35, -10.7, -10.7, -10.7, -10.7, -10.44, -10.76, -10.76, -10.43, -10.75, -10.75, -10.75, -10.42, -10.06, -10.06, -10.06, -10.06, -9.73, -10.1, -9.8, -9.79, -9.5, -9.5, -9.21, -8.86, -8.86, -8.59, -8.23, -8.23, -7.59, -7.33, -7.22, -6.96, -6.96, -6.56, -6.56, -6.29, -6.29, -5.86, -5.64, -5.2, -5.23, -4.57, -4.08, -3.77, -3.61, -2.53, -1.93, -1.33, -0.64, 0.0, 0.71, 1.4, 1.4, 2.23, 3.91, 5.24, 6.11, 6.01, 6.01, 6.45, 7.28, 7.28, 7.76, 9.45, 8.93, 7.81, 6.95, 6.64, 6.18, 5.63, 4.56, 3.81, 4.18, 4.32, 4.28, 3.25, 2.09, 1.09, 1.31, 0.0, -2.78, -15.65, -5.6, -10.4, -11.62, -10.4, -6.7, -5.4, -2.82, -2.82, -2.82, -2.82, -10.3, -10.3, -10.3, -10.3, -10.65, -10.35, -10.35, -10.7, -10.43, -10.77, -10.77, -10.76, -10.76, -11.09, -10.75, -10.75, -10.4, -10.06, -10.06, -10.06, -10.06, -9.44, -9.73, -10.1, -9.8, -9.5, -9.5, -9.21, -8.86, -8.86, -8.59, -8.59, -8.23, -8.23, -7.59, -7.33, -7.22, -7.22, -6.96, -6.96, -6.56, -6.56, -6.29, -5.64, -5.89, -5.23, -5.23, -4.57, -4.08, -4.3, -3.61, -2.53, -1.93, -1.33, -0.64, 0.0, 0.0, 0.71, 0.71, 1.52, 3.15, 5.1, 5.53, 5.53, 5.53, 6.01, 6.79, 6.79, 7.28, 7.76, 7.64, 7.9, 7.27, 6.11, 5.63, 4.56, 4.56, 3.65, 2.95, 4.32, 3.29, 2.2, 1.05, 1.03, 1.26, 0.0, 0.0, 0.0, 0.0, -6.0, -12.52, -12.07, -8.85, -7.19, -3.82, -3.82, -3.82, -3.82, -10.3, -10.3, -10.3, -10.3, -10.3, -10.65, -10.35, -10.43, -10.43, -10.77, -10.77, -10.76, -10.76, -11.09, -10.75, -10.4, -10.4, -10.06, -10.06, -10.06, -9.76, -9.44, -9.73, -9.73, -9.8, -9.5, -9.21, -9.21, -8.86, -8.87, -8.87, -8.87, -8.23, -8.23, -7.59, -7.33, -7.6, -7.22, -6.7, -6.7, -6.29, -6.29, -6.56, -6.31, -5.89, -5.23, -5.23, -4.57, -4.57, -4.3, -3.61, -2.53, -1.93, -1.97, -1.33, -0.69, 0.0, 0.0, 0.71, 1.4, 2.23, 4.12, 4.5, 5.1, 5.1, 5.1, 6.32, 6.32, 6.79, 6.87, 6.64, 8.59, 7.9, 6.7, 4.2, 3.99, 2.83, 2.83, 2.95, 1.92, 2.16, 1.97, 1.02, 0.98, 1.17, 1.54, 1.46, 1.23, 1.1, 1.38, 0.0, -3.96, -8.53, -8.85, -8.85, -6.7, -6.7, -6.7, -10.3, -10.3, -10.3, -10.3, -10.3, -10.65, -10.41, -10.43, -10.43, -10.77, -10.77, -11.1, -10.76, -10.76, -10.43, -10.09, -10.09, -9.76, -9.76, -9.76, -9.76, -9.44, -9.44, -9.44, -9.44, -9.21, -8.86, -8.86, -8.87, -8.87, -8.87, -8.59, -8.23, -8.23, -7.59, -7.59, -7.6, -7.22, -6.94, -6.7, -6.29, -6.29, -6.31, -6.31, -5.67, -5.23, -5.02, -4.57, -4.8, -4.12, -3.61, -3.11, -2.53, -1.97, -1.33, -0.64, 0.0, 0.0, 0.0, 0.71, 2.23, 3.15, 4.12, 4.12, 4.5, 5.1, 5.36, 5.36, 5.82, 6.32, 7.13, 7.13, 6.11, 5.2, 3.3, 1.93, 1.93, 2.83, 1.84, 1.92, 0.97, 0.99, 0.99, 0.98, 2.19, 2.76, 2.99, 2.66, 2.38, 2.43, 2.48, 1.48, 0.0, -2.45, -5.6, -6.94, -6.94, -6.94, -10.3, -10.3, -10.3, -10.3, -10.3, -10.65, -10.41, -10.43, -10.43, -10.77, -10.77, -11.1, -10.76, -10.76, -10.43, -10.09, -10.09, -9.76, -9.76, -9.76, -9.76, -9.44, -9.44, -9.44, -9.44, -9.21, -8.86, -8.86, -8.87, -8.87, -8.87, -8.59, -8.23, -8.23, -7.59, -7.59, -7.6, -7.22, -6.94, -6.7, -6.29, -6.29, -6.31, -6.31, -5.67, -5.23, -5.02, -4.57, -4.8, -4.12, -3.61, -3.11, -2.53, -1.97, -1.33, -0.64, 0.0, 0.0, 0.0, 0.71, 2.23, 3.15, 4.12, 4.12, 4.5, 5.1, 5.36, 5.36, 5.82, 6.32, 7.13, 7.13, 6.11, 5.2, 3.3, 1.93, 2.83, 2.83, 1.84, 1.92, 0.97, 1.04, 1.03, 0.95, 2.0, 3.5, 4.12, 4.12, 4.03, 3.62, 3.42, 3.47, 2.28, 1.33, 0.0, 0.0, 0.0, 0.0]}]